GFSNE_sfc_temp_000.txt.gz
Temp
68 67 66 67 66 64 63 61 59 56 59 63 63 67 67 68 68 70 69 68 68 67 67 67 67 69 70 71 72 73 75 76 76 76 76 76 77 78
68 67 66 66 66 65 64 62 60 58 56 62 64 65 67 67 68 69 69 68 67 66 66 66 67 68 68 70 70 71 72 73 74 74 74 74 74 75
67 66 67 66 65 64 63 63 60 59 57 64 63 66 64 65 66 67 68 67 68 67 67 67 66 66 67 68 68 69 70 70 71 72 73 73 73 73
67 67 67 68 65 65 63 62 61 60 59 58 64 64 63 65 65 64 66 69 68 69 66 66 65 65 65 65 65 66 66 67 68 69 71 72 72 72
67 66 66 66 64 64 62 61 61 62 60 59 61 65 65 66 64 65 64 65 68 68 67 66 66 65 65 64 63 63 61 62 63 64 66 67 69 71
67 67 66 65 64 64 63 62 62 61 60 59 61 62 63 65 64 62 62 66 65 70 69 67 67 67 66 65 64 63 60 59 59 60 61 63 65 67
67 67 66 66 65 64 63 63 61 60 60 59 60 61 62 63 61 64 61 63 65 67 67 68 69 69 70 68 68 67 63 61 59 59 59 59 60 62
67 66 65 65 65 64 64 64 63 62 60 60 61 59 61 62 63 61 61 60 58 68 65 64 67 65 69 69 68 66 64 62 60 59 58 58 59 59
64 63 63 64 64 64 63 62 63 62 62 62 59 59 60 62 61 59 59 57 58 62 61 58 63 62 68 71 66 65 63 62 61 60 59 58 58 58
63 63 62 62 63 62 62 62 62 62 62 63 61 61 61 62 61 61 58 57 59 59 62 53 61 61 66 69 66 65 63 61 60 59 59 58 56 55
63 62 61 61 59 58 61 60 59 60 60 59 59 58 58 58 58 58 55 54 53 57 62 57 59 60 62 65 69 65 62 60 59 58 59 57 55 53
60 60 58 58 55 54 59 57 56 58 58 58 59 59 59 60 59 59 58 54 53 52 60 55 58 58 56 63 68 68 70 59 57 56 57 56 53 64
60 61 59 54 52 52 51 56 55 56 56 55 56 58 58 58 59 60 58 55 53 53 59 56 56 58 57 59 66 67 69 66 63 58 54 52 51 63
59 59 56 51 50 51 53 52 51 54 54 54 54 54 53 55 57 56 57 56 57 56 57 60 57 58 58 60 60 64 65 64 64 62 60 54 52 54
57 55 52 49 48 52 52 53 52 53 52 51 51 52 54 55 55 55 57 56 57 57 60 60 59 60 59 61 66 63 63 63 63 61 59 58 57 60
54 54 53 54 53 54 53 52 52 52 52 49 50 51 53 53 52 54 52 53 53 55 59 60 61 60 59 60 63 64 63 62 62 61 61 60 59 61
51 54 54 55 52 52 52 50 51 52 50 50 49 49 50 51 50 52 52 51 51 52 55 58 59 61 60 60 62 65 63 62 63 62 61 60 60 62
52 54 52 50 51 50 50 50 51 51 51 50 50 49 50 49 48 50 50 50 49 52 54 56 56 57 59 58 57 57 63 63 62 62 63 62 61 62
53 51 50 50 49 49 49 49 49 49 48 50 48 50 50 49 48 49 49 49 49 51 54 56 55 55 55 54 56 53 53 63 63 62 63 63 64 63
51 50 49 49 48 49 49 48 48 49 49 49 49 49 49 48 48 49 49 47 48 52 53 54 54 55 53 53 54 55 49 57 60 63 64 66 65 59
50 49 49 49 49 49 48 47 46 47 47 47 48 47 48 49 49 50 47 47 49 51 51 52 54 55 56 58 54 55 57 52 55 58 59 63 64 64
49 50 49 49 48 47 46 45 47 47 46 47 46 47 48 49 50 50 50 46 48 48 50 52 54 54 53 53 51 52 53 56 56 55 54 54 60 63
50 50 48 48 47 45 45 46 46 47 46 46 46 47 48 49 50 52 52 54 54 51 50 50 51 53 52 52 51 51 51 52 54 54 54 55 54 54

GFSNE_sfc_temp_003.txt.gz
Temp
78 78 78 80 80 79 76 75 72 68 71 77 74 79 78 80 78 78 77 73 69 68 67 66 67 68 69 69 70 70 71 73 73 75 75 76 77 78
80 77 76 80 79 76 75 77 74 72 69 77 77 77 77 77 77 76 77 71 71 68 67 66 66 67 68 68 68 69 69 70 71 72 73 74 75 75
77 76 76 76 77 79 77 75 75 73 69 75 78 77 72 73 75 77 77 76 78 69 68 67 66 66 67 67 67 67 68 68 69 70 72 72 73 74
77 77 76 79 75 75 77 73 74 74 71 68 73 75 74 74 73 72 75 78 77 74 68 66 66 65 65 65 65 64 64 65 66 68 69 71 72 72
77 77 77 76 74 77 75 75 76 72 73 68 70 76 76 76 74 74 74 74 77 73 68 66 66 66 65 64 63 62 61 61 62 64 65 67 69 71
77 77 77 76 75 75 75 73 73 73 72 71 71 73 75 75 74 72 73 77 75 78 74 71 69 69 68 65 64 64 61 59 59 60 61 62 65 67
78 77 78 75 71 71 75 74 72 72 73 72 71 73 73 74 72 74 72 73 74 76 75 76 77 77 76 72 72 69 65 62 60 59 59 59 60 63
76 78 77 70 69 66 65 65 67 69 68 70 71 69 69 71 73 71 70 69 67 77 72 71 75 73 76 76 70 67 66 62 61 59 58 58 58 60
72 73 75 78 70 74 69 65 64 63 64 67 65 66 67 69 68 66 66 64 64 71 70 69 73 72 72 73 67 65 64 63 62 60 59 58 57 58
74 74 73 73 73 69 71 71 72 72 71 73 70 69 69 69 67 66 63 60 64 70 70 66 71 68 69 71 67 65 64 62 61 59 59 57 55 55
71 73 70 70 62 59 66 67 69 70 66 60 60 58 57 57 60 62 60 63 62 67 71 61 62 60 62 64 69 66 63 61 59 59 59 57 54 53
70 68 60 64 56 56 66 67 66 68 67 67 68 66 64 66 61 65 62 55 58 60 63 57 55 57 53 63 69 72 74 60 57 57 57 56 54 70
72 73 70 55 53 53 52 66 63 61 64 66 67 69 69 69 70 70 68 66 60 55 61 56 55 55 55 56 62 63 71 75 74 65 54 54 52 64
72 73 67 52 50 52 56 53 52 55 66 66 66 66 66 67 68 67 65 65 67 58 58 57 54 54 56 56 57 63 66 76 69 68 67 57 52 55
71 58 52 50 49 52 56 54 53 65 65 64 64 65 66 66 64 65 66 66 65 60 58 57 57 58 58 57 59 60 62 66 67 66 64 60 60 63
59 66 58 55 53 60 60 61 65 64 63 62 62 64 66 66 65 66 64 64 58 61 59 59 59 58 58 59 60 59 63 63 64 64 63 62 63 68
61 68 67 67 66 65 64 64 64 64 62 63 63 63 63 64 64 65 64 63 57 55 54 57 59 60 59 58 60 60 63 64 64 62 63 61 62 65
63 66 65 64 64 64 63 63 64 60 62 61 62 62 62 61 62 63 64 63 57 57 54 55 55 56 59 57 58 54 56 64 63 64 64 63 62 64
65 66 64 63 63 63 64 63 62 61 58 61 60 61 61 61 60 62 63 62 57 57 55 55 55 53 52 52 57 55 53 57 64 62 64 64 64 64
66 64 63 62 62 62 63 62 61 60 61 60 60 61 61 60 60 60 62 57 52 50 55 56 55 53 52 52 53 56 52 54 59 62 63 65 64 61
64 63 63 63 63 63 61 60 57 59 57 58 60 60 61 60 60 61 61 51 52 50 51 53 54 54 55 57 54 53 56 52 53 56 59 63 64 64
64 62 62 62 62 61 59 58 59 59 60 60 60 60 61 61 61 61 62 61 60 56 54 53 55 54 53 52 51 53 53 54 56 55 55 54 61 63
62 63 62 62 61 60 59 59 61 60 60 59 59 60 60 60 62 63 64 63 63 58 49 52 57 54 51 51 51 51 52 52 52 53 54 54 55 53

GFSNE_sfc_temp_006.txt.gz
Temp
82 81 82 86 87 86 85 82 78 74 77 83 83 86 85 86 83 83 82 76 71 69 68 67 68 68 69 69 70 70 70 70 71 72 73 74 77 78
84 82 81 85 85 86 85 84 83 79 74 83 83 84 84 83 82 81 82 74 73 70 68 67 67 68 68 68 68 68 69 69 69 70 71 72 73 75
81 80 79 80 83 85 86 85 83 82 76 80 83 84 80 80 81 82 82 81 83 71 69 67 66 67 67 67 67 67 67 67 68 68 69 70 71 73
80 80 80 83 80 80 83 79 81 80 78 72 77 80 79 81 80 78 80 84 83 78 69 67 67 66 66 65 65 65 64 65 65 66 67 68 70 71
81 80 80 81 79 81 80 80 82 81 80 78 76 81 81 82 80 76 79 80 83 77 70 69 68 67 65 64 63 62 61 61 62 62 63 65 67 69
81 80 80 80 79 78 79 78 78 78 78 77 76 78 74 77 77 74 78 83 82 85 79 74 73 73 67 65 64 64 61 59 59 59 60 61 63 65
81 81 82 80 75 75 80 79 77 77 77 75 76 77 73 71 71 79 77 79 79 82 82 82 83 83 82 74 75 71 65 62 60 59 58 58 59 61
79 80 79 74 72 67 66 66 69 71 71 74 74 73 72 72 77 76 75 73 71 81 77 77 80 79 81 82 74 68 66 65 62 60 59 57 58 58
78 77 76 74 71 79 69 65 65 64 64 70 69 71 69 72 72 67 70 70 70 76 73 71 78 77 81 82 71 66 63 63 62 62 60 59 57 56
78 76 74 69 70 75 76 76 75 76 76 76 73 73 73 73 70 69 68 67 69 72 73 69 77 76 78 78 69 66 64 62 62 61 60 59 56 55
71 72 71 69 64 62 71 72 73 74 70 63 61 60 60 59 61 68 69 66 65 68 74 73 74 73 72 68 69 65 63 61 60 60 60 58 55 53
67 68 62 66 59 58 69 71 70 73 74 73 73 69 65 71 61 67 65 59 60 64 73 71 69 63 54 63 66 68 66 63 58 58 58 58 54 66
75 72 74 59 56 54 54 71 68 65 68 71 74 76 76 76 77 72 71 71 69 68 73 70 60 58 54 54 60 63 67 66 67 68 55 55 53 61
73 81 66 54 53 53 56 56 55 56 73 74 73 73 74 74 75 74 70 70 72 68 70 67 58 55 53 53 54 62 62 62 64 66 75 64 53 54
81 60 54 52 51 52 55 56 53 70 72 71 71 72 73 73 71 71 73 72 72 73 71 68 60 57 55 54 55 58 58 61 64 70 75 74 64 61
59 69 63 57 52 57 62 61 71 72 70 69 70 71 72 72 72 73 71 72 71 72 72 71 62 58 55 56 58 58 60 59 64 67 66 67 68 72
69 75 73 74 73 73 72 72 71 71 69 70 69 69 70 70 70 72 70 70 67 64 64 71 65 59 57 56 56 56 56 57 64 64 64 63 64 69
68 74 74 74 72 73 71 71 71 66 69 68 68 68 68 68 67 68 70 68 63 66 57 63 62 56 56 57 58 57 56 55 56 63 64 62 62 65
72 74 72 73 71 71 70 70 69 70 65 67 67 67 67 67 66 67 67 67 66 64 58 63 60 53 50 49 56 55 54 55 56 57 65 64 64 64
74 74 72 72 70 69 69 69 69 68 68 67 67 67 68 67 66 66 66 65 66 65 55 64 59 54 50 51 51 56 52 53 54 55 61 65 69 61
76 73 73 72 71 69 69 67 65 66 64 65 67 67 67 67 66 67 67 58 59 64 59 55 59 56 56 56 53 53 57 53 53 54 55 59 64 63
75 72 71 71 69 67 67 66 65 66 66 67 67 67 67 67 67 67 68 67 67 65 57 51 62 53 53 51 51 52 52 54 55 55 54 54 52 56
71 71 70 69 68 67 65 65 67 67 67 67 66 67 66 66 67 68 69 70 70 67 66 67 62 51 52 51 50 51 52 51 51 51 53 53 55 55

GFSNE_sfc_temp_009.txt.gz
Temp
82 81 82 86 87 87 86 81 72 67 72 81 82 81 80 82 83 85 83 77 72 71 69 68 68 69 70 70 70 70 70 70 70 70 70 71 73 75
84 83 82 84 85 86 79 83 84 80 74 82 83 85 84 86 85 84 83 77 74 72 70 68 68 69 69 69 69 69 69 69 69 69 69 69 70 71
81 80 81 81 82 85 86 85 83 82 76 80 83 83 81 81 82 81 83 82 83 73 70 68 67 68 68 68 68 68 68 68 68 68 68 69 69 70
80 79 80 83 79 79 82 79 80 80 78 72 77 80 79 81 81 80 82 85 84 79 70 68 67 67 66 66 66 65 65 65 66 66 67 67 68 68
81 81 80 80 78 81 79 79 80 80 80 79 77 76 76 73 77 80 74 75 78 78 72 68 67 67 66 65 64 63 61 61 62 63 63 64 65 67
81 82 81 80 78 77 77 76 77 77 78 78 78 77 78 77 79 78 74 72 74 84 81 77 74 72 67 65 64 64 61 59 59 60 60 61 62 64
81 81 81 80 76 75 78 74 74 76 79 77 76 77 78 78 73 77 74 76 73 81 81 83 84 84 83 73 72 68 65 63 60 59 59 59 59 60
79 81 80 76 76 69 69 67 67 69 70 72 73 72 70 72 75 73 71 72 70 80 77 77 80 79 81 82 76 70 65 63 61 60 61 58 58 58
79 78 80 83 76 79 69 65 64 64 65 71 69 69 68 71 71 69 69 70 69 75 73 71 77 76 81 83 70 66 66 64 61 61 61 59 58 58
81 80 78 79 78 72 73 69 70 75 73 74 70 72 73 74 70 70 68 67 71 74 74 69 75 75 77 81 70 67 67 65 62 61 60 59 57 56
81 81 80 75 69 63 70 67 68 71 73 67 65 64 62 62 64 70 69 69 68 70 72 71 72 73 77 76 76 68 63 61 60 60 59 59 56 55
73 76 64 69 58 59 69 69 70 73 76 76 75 69 64 68 61 67 71 68 68 66 73 69 72 72 65 71 71 64 59 59 59 58 58 57 55 63
76 76 76 58 57 55 56 71 69 67 71 72 74 75 77 77 79 77 70 72 68 69 74 71 69 66 61 62 64 63 60 64 65 65 58 54 53 58
76 76 68 56 57 55 57 59 58 58 72 73 74 75 75 76 77 76 72 72 73 69 71 69 63 61 59 57 55 61 61 61 61 61 62 60 54 53
67 55 55 54 54 54 54 58 56 69 71 72 73 73 74 75 73 72 73 73 73 72 74 68 64 63 60 56 54 55 56 59 60 61 61 64 66 63
60 68 65 62 56 60 63 62 68 71 72 70 70 73 74 73 73 74 72 72 71 72 73 72 67 65 59 57 55 54 57 54 57 59 59 68 69 70
72 76 74 74 75 72 69 67 67 73 72 72 71 70 71 71 71 72 71 70 68 68 67 69 68 65 64 58 54 55 56 55 56 56 58 64 67 72
72 74 76 77 76 76 73 73 74 71 72 71 69 69 69 68 68 69 70 69 67 68 68 67 65 62 60 61 61 55 55 54 54 56 57 61 62 64
72 76 76 75 75 75 74 73 72 73 68 69 69 69 69 69 67 68 68 68 67 67 66 61 59 57 50 49 56 56 53 53 53 54 55 56 61 64
74 76 75 75 74 73 72 72 72 71 70 70 68 69 69 68 67 67 68 67 66 67 64 65 58 55 51 51 52 55 53 53 51 51 52 55 58 60
78 76 76 74 74 73 71 70 68 68 67 66 67 69 69 68 67 68 68 59 61 68 64 65 63 54 54 61 55 54 57 54 52 51 52 51 55 64
77 75 75 73 72 70 69 68 68 68 68 69 69 68 69 68 68 68 69 68 68 68 67 66 61 57 52 52 50 52 52 54 55 54 54 52 50 51
75 74 74 73 71 69 68 68 68 69 70 69 68 68 68 68 69 69 70 71 71 69 67 67 65 61 56 52 50 52 52 51 51 50 51 53 53 54

GFSNE_sfc_temp_012.txt.gz
Temp
76 75 75 75 75 76 74 73 69 64 66 70 72 76 74 76 77 77 76 77 74 70 70 69 69 70 70 70 70 70 71 71 71 70 71 71 72 72
76 75 74 75 76 75 75 73 72 69 66 71 72 73 76 77 78 75 76 76 72 70 69 68 69 69 69 69 69 69 69 69 69 70 70 70 70 70
75 75 75 76 74 74 75 74 72 71 68 69 71 73 73 72 74 74 76 73 73 72 70 69 68 68 69 68 68 68 68 68 68 68 69 69 69 69
74 74 74 78 73 74 73 72 72 73 70 67 70 70 71 73 73 71 75 80 74 77 72 70 68 67 66 66 66 66 65 66 66 66 67 68 68 69
74 74 73 74 73 73 72 71 71 72 71 67 68 70 70 70 69 70 70 71 75 75 71 70 68 68 66 65 64 63 62 62 62 63 64 65 66 67
76 75 74 73 73 73 72 71 71 69 68 64 66 69 69 70 70 67 67 69 68 76 76 73 72 69 67 65 64 64 61 60 59 60 61 61 63 64
76 75 76 76 75 73 71 71 70 68 67 66 67 69 69 67 65 67 66 66 68 71 70 70 72 70 71 67 68 68 64 62 60 59 58 58 59 60
74 75 76 74 73 69 65 67 70 68 66 65 66 66 65 65 66 66 64 64 63 69 66 67 70 70 71 72 71 70 68 63 61 60 59 58 58 58
75 74 75 78 73 74 67 67 66 65 67 67 65 66 65 65 65 64 63 63 62 67 65 63 68 67 70 75 69 68 66 61 61 61 61 59 58 57
75 74 72 72 73 73 72 71 68 68 66 66 65 67 67 67 66 65 63 62 64 66 66 61 64 66 69 71 69 66 64 63 62 61 60 59 57 56
74 73 72 73 68 62 69 68 67 69 70 64 65 64 64 62 64 64 62 61 61 63 67 64 66 65 66 67 70 67 64 61 61 60 60 59 57 55
71 71 65 70 61 59 67 66 65 67 68 69 69 66 63 65 62 63 65 61 62 60 66 62 64 63 60 66 66 67 66 62 58 56 57 56 55 58
69 68 71 59 57 57 58 67 64 62 66 67 67 68 69 70 70 70 65 63 62 62 67 65 63 63 58 58 63 65 65 63 60 58 56 55 54 55
70 69 68 55 54 57 56 59 57 58 64 65 65 66 67 66 66 65 65 64 65 63 65 63 62 59 57 57 56 63 64 63 62 60 59 58 56 55
71 60 55 54 58 55 55 58 58 62 63 64 64 64 64 65 66 65 65 65 65 65 66 63 61 60 57 56 56 58 56 59 58 58 57 57 57 58
59 59 60 60 61 63 61 57 61 64 64 64 63 64 65 64 63 63 61 61 60 62 63 66 64 61 58 57 57 56 57 54 57 57 56 55 57 59
64 67 65 65 66 64 64 64 64 64 63 65 64 63 61 62 61 62 60 60 59 58 60 65 62 62 60 58 55 57 55 55 57 55 53 53 56 58
67 67 68 70 69 69 64 64 62 63 64 64 62 61 60 60 60 60 60 59 57 58 59 60 61 58 58 59 61 55 55 54 54 53 53 52 52 56
68 68 68 70 69 68 67 67 66 66 64 64 63 62 61 60 59 59 59 59 58 58 59 59 56 55 51 49 57 58 54 53 53 51 52 51 50 53
67 69 70 69 68 67 67 66 65 64 63 62 60 60 61 60 59 59 59 58 58 58 59 59 58 56 52 50 51 56 54 53 51 50 50 51 54 57
69 68 71 70 68 67 66 65 64 63 61 60 60 60 61 61 59 60 60 56 57 59 57 56 58 56 54 56 53 53 57 55 53 50 50 48 48 51
73 71 70 68 66 66 65 63 63 62 62 62 61 61 61 61 61 61 61 60 59 60 58 59 58 57 55 52 49 50 53 54 56 55 53 50 48 44
71 70 68 68 67 65 65 64 63 63 63 63 62 61 60 61 60 61 62 63 63 61 58 59 58 58 54 51 50 50 50 50 51 49 49 52 52 52

GFSNE_sfc_temp_015.txt.gz
Temp
68 68 67 68 68 68 68 67 65 59 59 65 66 69 71 72 72 72 71 72 72 70 69 68 69 69 70 71 71 71 71 71 71 71 71 71 72 73
68 68 68 67 68 68 67 66 66 64 61 64 66 69 72 74 74 73 72 73 72 70 69 68 68 69 69 69 70 70 70 70 70 70 70 70 70 71
68 67 68 68 67 67 67 67 66 65 62 64 66 67 67 68 70 70 72 71 70 70 69 68 67 67 68 69 68 68 68 69 68 69 69 69 69 70
68 67 68 73 67 67 68 66 65 65 64 62 63 66 66 68 68 67 70 76 71 74 70 69 67 66 66 66 66 67 66 66 66 67 67 68 69 69
68 69 68 70 65 67 68 68 65 67 64 62 62 65 67 66 65 65 64 66 70 72 69 68 68 68 66 64 64 63 62 61 62 63 64 65 66 67
69 69 71 70 68 67 68 67 67 64 63 61 60 61 63 68 65 63 64 63 64 72 71 70 69 69 67 64 63 63 60 59 59 59 60 61 63 64
69 71 73 72 71 68 67 66 66 64 62 60 59 59 63 61 63 62 61 62 63 65 64 65 66 65 66 66 67 67 63 61 59 59 58 58 58 59
69 72 71 72 72 69 69 69 69 65 62 59 59 59 62 60 60 60 59 58 57 64 59 65 68 66 66 66 67 66 64 62 61 59 58 57 57 58
71 72 72 75 70 69 67 67 65 65 65 62 60 61 59 60 61 59 58 57 56 64 56 58 60 58 64 66 66 66 64 61 61 61 60 59 58 58
71 70 68 68 68 69 66 65 64 64 63 62 61 65 61 63 62 61 59 57 56 58 58 54 59 57 61 62 65 64 63 61 59 59 58 58 55 54
69 69 67 67 65 61 66 64 65 64 66 62 63 63 61 61 61 58 57 53 52 54 58 55 60 56 58 59 63 64 63 60 60 60 59 58 55 54
65 68 65 67 59 59 64 63 61 62 61 61 61 61 60 61 61 59 65 54 52 52 59 55 54 56 57 57 58 59 64 61 58 57 57 56 54 56
64 64 64 59 59 57 57 62 62 58 59 57 58 59 59 60 61 66 63 56 54 54 60 56 54 53 51 50 55 59 63 63 61 58 56 54 53 55
64 64 63 57 54 56 57 58 55 58 56 54 54 55 56 58 63 61 59 58 58 59 60 56 53 52 52 52 55 59 62 62 60 59 58 57 55 54
63 59 54 53 55 56 56 56 57 55 54 53 54 55 57 61 57 58 59 58 57 58 60 56 54 54 53 52 53 57 57 58 60 55 57 57 56 57
58 56 57 57 56 57 56 54 53 54 54 54 55 55 55 56 55 54 53 53 51 53 58 58 57 59 56 53 54 54 56 52 57 56 55 56 56 55
57 56 54 53 53 53 54 56 58 58 55 57 56 53 53 54 53 53 52 51 49 49 51 54 56 56 57 56 53 55 54 54 57 56 54 52 54 54
57 56 55 55 55 56 56 55 56 59 58 58 54 53 52 51 51 52 51 49 48 49 49 51 52 51 51 52 59 55 53 53 54 54 53 50 50 54
58 58 58 56 57 55 56 55 55 57 56 53 51 51 51 51 52 50 50 50 50 49 51 48 49 48 48 47 52 56 53 53 52 51 52 50 48 50
56 56 56 57 56 56 55 54 53 53 52 51 51 50 50 50 50 50 50 48 49 49 48 49 49 49 50 49 49 53 53 51 50 49 49 50 51 54
57 56 62 56 55 55 54 53 52 52 52 51 51 49 51 49 49 50 49 51 50 48 47 48 50 56 51 50 47 47 52 53 52 50 48 45 45 47
57 58 56 56 55 54 53 53 52 51 51 50 50 49 49 49 50 50 49 49 50 48 49 49 49 50 49 47 45 46 48 52 54 55 53 50 45 42
59 57 56 56 55 54 53 53 52 51 50 50 50 49 49 49 49 49 50 51 50 49 49 49 49 49 48 46 47 44 46 47 49 49 48 51 50 50

GFSNE_sfc_temp_018.txt.gz
Temp
65 65 65 65 65 64 64 64 63 57 58 63 64 66 67 69 72 69 68 71 70 69 68 68 69 69 70 71 71 71 72 72 72 72 71 72 73 74
66 65 64 64 65 65 65 64 62 62 58 62 64 65 67 71 71 70 70 71 71 69 69 67 68 69 69 69 69 70 70 70 70 70 70 70 70 71
66 66 66 65 65 64 64 64 62 65 62 62 62 65 66 66 68 67 69 68 68 69 69 67 67 67 68 68 68 68 68 69 69 69 69 69 70 70
66 65 66 69 64 66 64 64 64 64 63 61 61 63 64 66 67 67 68 71 67 71 68 67 67 66 66 65 65 65 65 65 66 67 68 68 69 69
67 66 66 65 67 67 66 63 64 65 63 61 61 61 62 63 64 63 63 64 68 71 69 68 67 66 65 64 62 61 60 60 61 62 63 65 66 68
68 68 67 68 69 68 67 64 64 64 62 62 61 59 60 62 62 61 61 61 62 69 69 68 67 67 66 65 64 64 60 59 58 58 59 60 62 63
67 67 68 71 71 69 67 65 63 64 62 61 59 58 60 59 60 60 59 59 59 60 59 60 60 61 62 64 67 67 64 62 60 59 57 57 57 58
67 65 67 71 70 68 67 68 68 64 61 60 60 59 61 59 58 58 57 56 55 59 57 58 60 59 60 61 65 64 63 62 60 59 58 57 57 57
67 66 68 73 68 69 66 66 63 63 65 65 63 60 59 60 58 58 57 56 55 61 56 54 56 56 60 63 64 63 63 61 60 60 59 59 59 58
69 67 67 68 66 65 65 63 63 64 65 64 62 63 61 62 60 60 59 57 55 56 55 52 55 55 58 59 62 63 62 61 60 59 58 57 55 54
68 68 67 66 62 61 65 63 64 64 63 61 61 61 60 59 60 58 56 53 52 53 55 54 55 53 54 57 60 62 61 60 59 59 58 57 55 54
66 66 63 66 60 58 64 63 62 65 62 62 60 61 60 60 60 59 57 53 52 53 55 54 52 51 51 53 55 56 57 58 57 57 57 56 54 56
64 65 66 58 55 55 58 62 62 60 59 58 56 56 57 57 58 58 56 56 53 51 56 54 51 49 48 48 51 54 56 60 58 57 55 53 53 54
65 64 62 55 53 54 57 57 56 57 57 57 54 53 53 55 57 57 57 56 56 56 58 53 51 50 47 48 49 53 57 58 56 57 57 54 53 53
63 60 55 52 52 55 56 56 54 54 52 51 51 51 53 55 54 55 55 55 54 54 57 52 50 49 50 50 50 50 54 55 56 54 55 55 57 57
58 56 56 55 55 56 55 54 53 52 52 52 51 52 52 52 52 52 51 51 49 51 56 55 52 50 51 52 51 53 56 50 56 55 56 57 58 58
55 55 55 56 56 52 52 52 51 51 53 52 53 52 51 51 51 50 49 48 46 47 48 53 52 51 52 53 52 55 53 53 56 55 54 54 56 57
55 53 53 52 53 52 52 52 53 55 52 53 51 49 50 49 49 49 47 46 45 46 46 48 47 48 48 51 56 52 50 51 54 53 52 49 51 54
55 55 54 54 54 53 53 53 53 53 53 51 50 49 49 49 48 48 47 46 47 45 47 45 45 45 44 44 49 54 48 52 51 50 51 49 48 50
54 54 54 53 53 53 52 51 49 50 49 50 49 49 47 47 48 47 46 45 45 45 45 46 45 44 45 45 45 48 51 49 48 47 48 50 51 52
53 53 53 52 52 51 51 50 50 49 49 48 48 48 47 46 46 46 46 48 47 44 44 46 48 53 48 47 44 44 47 51 50 47 47 44 43 44
54 53 53 52 52 51 51 50 50 50 48 47 47 46 47 46 46 46 46 45 46 44 44 46 46 47 46 44 43 43 45 48 52 53 53 50 42 39
53 55 53 53 52 51 50 50 50 49 47 46 46 46 46 47 45 45 46 46 46 45 45 45 46 46 45 44 44 42 43 44 46 48 48 52 50 49

GFSNE_sfc_temp_021.txt.gz
Temp
64 64 63 63 63 63 62 62 62 57 57 62 63 65 65 65 68 68 68 70 70 69 68 68 69 70 71 71 71 72 72 72 72 72 72 72 73 74
64 63 62 62 64 63 63 61 61 61 59 61 63 63 65 68 69 68 67 70 70 69 68 67 68 68 69 69 69 70 70 71 71 71 71 71 71 72
65 63 63 63 62 63 62 61 61 61 60 62 61 63 65 65 66 65 67 66 65 68 68 67 67 67 67 68 68 68 68 68 69 69 70 70 70 70
64 64 64 67 63 62 62 63 65 60 61 60 60 61 63 64 64 64 67 69 66 69 68 66 65 65 65 65 64 64 64 64 65 66 67 68 69 69
66 65 64 64 62 64 63 63 64 63 61 60 60 60 61 61 62 62 63 63 67 70 69 68 67 66 65 63 63 62 59 59 60 61 62 64 66 67
67 66 65 65 64 68 67 66 63 63 60 60 59 60 60 62 61 60 61 60 61 67 68 66 65 66 65 63 63 64 61 59 58 58 58 59 61 63
67 66 65 67 69 69 65 63 64 61 61 60 59 60 61 60 60 60 59 60 59 60 59 60 59 59 60 62 65 66 63 61 60 59 58 57 57 58
65 66 67 67 68 67 67 67 66 63 61 59 60 60 62 60 60 59 57 55 55 59 56 58 58 59 59 59 64 63 62 61 60 59 58 58 57 57
68 67 68 69 67 68 65 65 65 65 64 62 61 61 61 62 60 58 56 56 55 57 56 54 55 56 59 61 63 63 62 61 60 59 59 58 58 57
68 67 67 67 66 65 65 64 63 63 64 63 63 64 63 63 60 59 58 56 56 57 56 52 54 54 57 58 62 62 62 60 60 60 59 57 54 53
67 69 67 65 63 62 65 64 62 62 62 61 62 61 59 59 59 57 56 54 52 53 54 53 53 53 53 56 59 62 61 58 58 58 58 57 54 54
66 66 63 65 60 59 65 63 61 63 61 61 60 59 59 59 60 58 56 53 51 50 53 52 51 51 50 51 52 55 54 57 56 55 56 56 54 52
64 62 63 59 56 55 58 63 63 60 60 59 57 55 54 55 55 54 54 54 51 51 55 54 50 48 47 47 48 52 53 55 54 54 54 53 52 53
62 64 64 57 52 52 55 56 54 57 55 54 52 52 52 53 55 54 54 54 54 55 55 52 50 48 45 44 46 50 52 53 52 54 53 53 52 53
66 62 55 52 50 53 54 54 54 54 53 52 51 51 52 53 52 53 54 53 52 53 55 51 49 47 46 46 47 49 48 51 53 51 53 53 54 56
57 56 56 55 55 55 55 54 53 52 52 50 50 51 51 50 51 50 50 49 47 50 53 51 48 47 47 47 48 49 53 48 51 53 53 54 56 57
56 56 55 54 54 53 52 52 51 51 51 50 51 51 50 49 49 48 47 46 45 45 46 49 50 47 47 48 47 50 49 48 50 51 51 51 53 54
55 55 54 53 54 53 51 51 51 53 50 50 51 50 49 48 47 47 45 44 44 44 43 44 44 46 47 49 54 48 47 47 49 49 49 47 49 52
55 53 53 52 52 52 52 51 52 52 52 51 49 48 48 47 47 46 45 44 45 43 44 42 42 42 40 40 47 54 47 46 46 47 48 47 46 49
54 54 54 53 53 52 51 51 49 47 48 48 48 47 46 47 46 45 44 43 42 43 43 43 42 42 40 43 44 47 49 45 44 46 46 49 51 53
53 53 53 51 50 50 50 49 49 49 48 47 47 46 45 45 44 45 44 46 45 42 42 44 46 52 44 45 44 43 45 50 48 45 46 45 45 45
53 53 51 51 51 50 49 49 49 48 47 46 45 45 45 44 45 44 44 43 43 42 42 43 44 45 44 43 41 41 44 44 50 51 53 52 44 39
53 52 51 51 51 50 49 48 48 47 46 46 45 44 44 44 43 43 44 44 43 43 42 43 44 43 43 42 43 41 41 43 45 44 47 53 52 51

GFSNE_sfc_temp_024.txt.gz
Temp
68 68 69 69 69 69 69 69 68 65 66 70 71 71 72 73 73 75 74 71 69 69 68 68 68 69 70 71 71 72 72 72 72 72 72 73 74 75
69 67 67 68 69 69 69 68 67 68 67 69 70 71 72 74 73 75 74 71 70 69 68 67 67 68 69 69 69 70 70 70 70 70 70 71 71 72
68 67 67 67 68 69 68 68 67 67 68 69 68 70 71 72 73 73 74 73 74 67 67 67 66 66 67 67 67 67 68 68 68 68 69 69 70 70
69 67 68 69 67 67 67 67 67 67 68 67 67 69 69 70 71 71 73 76 74 71 67 67 66 65 65 64 64 64 63 63 64 65 66 67 68 69
70 69 68 67 67 67 68 67 68 68 66 67 69 68 69 69 70 69 70 70 73 70 68 67 67 66 65 64 63 62 60 60 60 60 61 63 64 66
70 69 69 68 67 67 68 68 68 66 66 64 65 66 68 67 68 66 67 69 69 73 72 68 67 67 65 63 63 63 61 59 59 58 58 59 61 62
69 69 69 69 68 68 70 68 67 67 65 64 63 65 66 64 63 63 63 64 65 68 70 71 70 71 71 66 67 66 63 61 60 58 58 57 57 58
67 69 70 68 67 66 67 67 68 67 65 64 63 63 65 65 65 61 61 60 62 68 67 69 68 69 71 70 66 64 62 61 60 59 58 58 58 58
69 68 67 70 68 69 65 66 65 65 66 66 65 62 64 66 64 61 59 62 63 67 65 64 68 67 70 72 63 62 61 60 60 59 59 58 57 56
69 69 69 69 68 68 68 68 67 68 66 65 67 67 66 67 65 64 65 63 64 66 64 60 67 65 68 69 62 62 61 60 60 58 58 56 55 54
69 69 69 69 64 62 68 67 67 65 62 62 62 61 61 60 63 64 60 59 61 64 63 63 65 64 66 67 69 62 59 58 57 57 57 56 54 52
68 69 64 67 60 59 68 68 66 64 64 64 64 62 62 62 59 65 65 63 61 61 64 62 63 63 62 65 65 67 68 59 55 55 56 55 53 64
68 67 67 59 56 55 59 67 64 64 63 66 66 65 65 65 65 64 63 64 61 61 65 64 63 62 60 59 62 65 67 66 67 65 56 52 52 55
67 67 66 56 54 53 56 58 55 60 64 64 63 63 64 65 64 64 62 63 64 64 64 62 61 59 56 58 58 64 65 66 65 65 65 58 53 52
68 63 56 50 50 52 55 54 55 64 63 62 62 62 63 64 62 61 61 60 60 61 63 59 58 58 55 55 57 60 60 64 65 62 64 63 62 63
58 59 57 57 56 58 57 56 62 63 62 63 62 62 62 61 62 61 62 61 60 62 62 60 58 56 59 55 56 59 62 57 63 63 62 61 62 62
58 60 60 60 59 58 59 58 60 60 60 60 60 60 61 61 60 59 59 58 59 58 59 61 59 57 55 56 57 62 60 60 63 61 58 58 59 60
62 62 61 61 61 60 59 58 58 58 60 60 61 61 61 60 59 58 57 58 57 58 57 58 58 58 60 61 58 60 61 59 61 59 57 55 56 59
62 62 62 61 61 60 60 59 60 60 59 60 61 60 59 58 57 58 57 57 57 57 58 57 56 55 53 55 61 56 56 59 58 56 57 56 54 56
62 61 60 61 61 61 60 61 61 59 60 60 59 58 58 58 57 57 56 56 56 56 57 58 56 56 52 53 52 59 50 56 57 54 54 56 56 55
61 61 61 62 61 61 60 60 60 60 59 58 58 58 57 58 57 57 57 50 52 56 56 57 59 53 54 54 55 58 59 50 52 53 53 52 51 48
61 62 61 61 60 60 60 59 58 58 58 58 58 57 57 58 59 58 58 58 57 57 56 57 57 56 57 55 54 53 56 58 56 54 53 51 47 42
60 61 60 60 60 59 59 59 61 61 59 59 58 57 56 56 57 58 58 58 57 57 56 57 59 57 57 55 51 54 53 54 54 53 54 54 53 52

GFSNE_sfc_temp_027.txt.gz
Temp
79 78 80 83 83 83 82 82 81 76 78 81 83 83 85 86 83 84 84 76 70 69 69 69 69 70 71 71 71 72 72 72 72 72 72 73 74 75
81 78 78 82 81 82 82 82 80 80 77 83 82 84 84 86 81 83 83 74 71 69 68 67 68 68 69 69 69 69 70 70 70 70 70 70 71 72
78 77 77 78 81 81 81 81 80 80 78 82 83 82 78 80 83 84 84 83 85 69 68 67 66 67 67 68 68 68 68 68 68 68 69 69 69 70
79 77 77 79 76 77 80 77 79 79 79 74 80 80 77 79 80 79 82 86 84 75 68 67 66 66 66 65 65 65 64 64 65 65 66 67 68 68
80 78 78 77 75 78 77 78 80 78 77 78 78 81 81 81 79 78 78 79 81 74 67 68 68 67 66 65 64 63 61 61 61 62 62 64 65 66
80 79 79 78 76 73 75 75 77 78 77 76 78 78 78 79 78 78 78 79 78 77 77 71 69 69 66 65 64 63 61 59 59 59 60 60 61 63
80 79 79 78 73 73 79 77 76 75 78 77 76 76 77 73 68 76 77 76 75 72 74 79 81 81 79 67 69 68 64 61 60 59 58 58 59 59
79 79 79 73 71 67 68 70 75 75 75 77 77 75 74 67 71 76 76 74 73 69 68 75 77 78 79 80 71 66 63 61 60 59 59 58 58 58
79 80 79 80 72 75 66 66 67 67 71 76 74 74 71 69 73 71 72 72 72 76 73 74 79 76 80 82 66 63 61 60 60 59 59 58 57 57
80 80 78 78 75 74 77 74 74 73 74 77 77 77 72 76 74 75 72 72 74 76 74 70 77 75 78 79 67 63 61 59 59 58 57 56 55 54
80 80 78 77 69 64 75 74 72 74 67 64 65 63 63 63 70 76 72 70 72 75 75 72 75 73 75 75 78 65 61 59 58 57 57 56 54 53
79 77 65 73 61 60 74 75 74 76 75 73 70 64 65 67 61 72 77 73 73 71 74 71 73 73 69 76 75 76 77 65 59 57 56 55 53 71
78 75 79 60 56 56 61 77 75 77 70 74 73 73 74 74 75 74 74 75 74 72 74 72 72 72 70 69 72 74 75 75 76 73 57 55 53 56
73 77 76 57 54 54 60 61 56 65 77 76 75 73 73 75 76 75 73 74 76 71 73 69 70 70 68 68 68 73 74 75 75 74 74 64 56 55
75 68 59 53 53 55 55 55 57 76 76 74 74 73 75 78 74 71 70 70 69 70 72 69 70 69 69 67 67 69 68 73 74 72 72 72 71 71
61 60 59 59 60 64 59 60 75 77 75 75 74 74 75 73 73 74 73 73 71 72 71 69 67 66 68 70 69 68 71 68 72 71 71 69 71 72
60 62 62 63 64 65 69 68 73 72 72 73 73 72 73 73 72 72 72 71 69 69 70 72 70 66 68 65 66 69 69 69 71 70 66 66 68 69
62 63 64 66 67 69 67 68 72 69 72 71 73 73 72 72 71 70 70 69 68 69 68 70 69 68 70 69 65 68 69 68 69 68 66 64 64 68
63 63 64 67 69 69 70 71 72 71 69 72 72 72 72 72 67 69 69 68 67 67 67 69 67 66 63 62 70 59 65 67 66 65 66 65 63 65
66 65 66 67 68 68 70 73 72 71 71 72 71 72 72 70 69 68 68 67 67 66 66 68 67 66 64 63 62 67 52 64 64 62 62 64 64 59
68 68 69 69 69 71 72 72 72 72 72 72 72 71 71 70 69 69 69 57 58 66 65 66 69 54 65 66 64 66 68 52 57 61 60 59 58 59
65 68 71 73 72 72 72 71 71 69 70 70 71 71 70 70 70 69 69 68 66 67 67 68 68 68 67 65 63 63 65 66 62 56 54 54 56 46
71 73 72 72 69 71 71 71 72 72 71 72 71 70 69 69 69 70 70 69 68 67 67 66 68 68 67 66 60 64 62 62 63 62 63 56 54 54

GFSNE_sfc_temp_030.txt.gz
Temp
85 84 86 91 91 91 90 89 86 82 83 85 87 90 92 92 88 89 88 75 72 71 70 69 70 71 71 72 72 71 72 72 72 72 72 73 74 75
88 85 84 90 90 90 90 90 88 85 82 91 89 91 91 92 84 88 89 77 72 70 69 68 68 69 70 70 70 70 70 70 70 70 70 70 71 72
85 85 82 85 89 90 89 89 88 87 83 88 90 88 84 84 87 87 89 88 88 71 69 68 67 68 69 69 69 69 69 69 68 69 69 69 70 70
84 83 83 86 82 84 88 84 86 86 85 79 86 86 81 83 84 83 86 91 90 73 71 69 68 68 67 67 67 67 66 66 67 67 67 68 68 69
86 84 83 83 81 86 83 86 86 84 84 84 84 87 87 86 83 82 83 84 88 76 71 69 67 68 67 66 65 63 62 62 62 63 64 65 66 67
86 86 85 84 82 81 82 81 83 84 83 83 84 85 85 85 84 83 82 84 85 89 81 75 72 70 67 65 65 64 62 61 60 61 61 61 62 64
87 86 86 83 77 79 84 81 82 81 85 84 83 84 83 83 80 83 80 78 85 84 84 85 83 80 81 67 73 68 64 62 60 59 59 59 59 60
85 86 86 77 76 70 70 71 78 80 79 84 84 82 80 82 83 81 80 81 78 85 80 81 84 83 85 87 71 67 64 63 61 60 59 59 59 59
86 86 86 89 78 83 69 67 68 68 72 80 78 81 80 79 78 77 77 78 77 84 77 78 85 83 86 87 68 67 63 61 60 59 59 58 58 57
87 86 86 87 84 81 82 77 79 80 78 82 80 81 81 81 79 78 77 76 78 81 79 73 82 81 83 84 69 66 63 61 59 59 58 57 55 54
88 88 87 85 75 67 81 79 78 79 70 66 66 66 67 66 72 81 77 73 73 77 78 78 79 79 80 81 82 68 65 62 61 59 59 57 54 53
86 86 70 81 65 62 77 79 76 78 77 73 72 70 67 70 63 76 81 77 79 78 80 77 78 78 74 81 81 81 80 64 60 59 60 58 54 73
91 88 88 64 58 58 64 74 74 78 73 78 77 80 79 78 78 78 79 80 79 79 76 78 77 77 76 75 79 80 80 79 79 76 58 57 54 58
89 92 86 59 55 55 61 63 59 63 76 80 79 77 78 79 81 80 78 79 82 76 77 74 74 75 73 72 72 78 79 79 79 78 78 69 55 55
93 80 63 54 54 56 58 58 59 77 80 80 77 77 81 83 81 77 76 75 75 75 76 74 74 73 74 72 72 73 73 76 78 77 77 76 76 76
63 65 61 60 60 61 60 62 71 80 79 79 78 78 81 81 78 79 77 77 76 77 75 74 72 71 71 73 73 72 74 72 76 76 76 75 76 76
61 63 63 63 63 63 66 67 71 78 77 78 77 78 79 78 78 79 78 77 74 75 76 76 72 72 72 69 69 72 72 73 75 74 71 71 73 74
63 64 65 64 63 64 66 66 72 72 77 78 78 78 77 76 76 77 77 76 74 75 74 75 75 73 74 74 70 72 73 72 73 72 71 69 70 73
68 66 64 64 63 64 65 67 72 74 74 77 77 78 77 77 75 76 75 74 74 74 74 74 73 70 67 67 75 62 70 71 70 70 71 69 67 69
69 66 67 66 68 66 66 70 74 75 75 76 77 78 77 76 75 75 75 74 73 73 73 73 72 71 68 67 68 71 54 69 69 67 67 69 68 61
68 69 70 69 69 72 74 76 76 75 75 76 76 77 77 77 76 76 76 61 64 72 70 71 74 59 72 72 68 70 74 54 60 65 65 64 63 63
69 72 73 71 74 76 77 77 76 75 75 76 77 77 77 77 77 76 76 74 71 72 72 74 74 73 71 69 68 68 70 73 65 57 55 57 62 56
71 74 72 72 75 78 78 76 77 76 77 77 77 77 77 76 76 77 76 76 75 74 72 72 73 74 71 70 66 69 68 69 70 68 69 56 56 55

GFSNE_sfc_temp_033.txt.gz
Temp
86 85 86 92 93 93 92 90 86 82 84 84 87 92 93 93 88 90 89 74 73 72 71 71 71 72 72 72 72 72 72 72 72 72 72 73 74 75
89 86 85 90 93 92 92 91 90 86 82 91 89 92 91 92 84 88 89 77 73 72 71 69 69 70 70 71 71 71 71 71 71 71 71 71 71 72
87 87 84 85 90 92 91 91 89 88 84 88 92 88 86 85 86 87 88 88 87 71 71 70 69 69 70 70 70 70 70 70 69 70 70 70 70 71
85 86 85 87 83 85 90 86 87 88 86 81 86 87 83 84 84 84 86 91 90 73 72 71 69 68 68 68 68 67 67 67 67 67 68 68 69 69
87 86 85 85 83 85 84 87 87 86 86 83 84 88 88 86 83 83 83 84 88 73 71 70 69 68 67 66 65 64 63 62 62 63 63 65 66 67
88 88 87 85 83 82 84 82 84 86 83 84 84 85 87 87 85 82 82 83 83 89 81 79 77 70 68 66 66 65 63 61 61 61 62 62 63 64
89 88 88 85 79 80 85 82 81 82 85 85 83 83 85 84 79 83 81 83 83 85 85 85 82 84 78 68 74 68 65 63 62 61 60 60 60 61
86 88 88 79 77 72 72 72 80 81 80 84 84 82 81 84 84 83 82 79 76 76 82 81 83 80 84 84 71 69 66 65 63 61 59 59 59 59
87 87 89 92 80 84 71 71 69 70 74 81 78 80 81 83 83 77 78 77 77 79 77 78 83 82 86 81 68 67 64 62 61 60 60 59 58 57
88 87 87 87 86 84 83 80 80 80 78 81 81 83 83 84 81 80 78 77 77 80 78 74 82 81 84 85 70 66 65 64 62 61 59 58 56 55
88 89 88 87 78 70 83 81 79 79 72 68 67 69 70 69 75 81 78 74 72 77 78 78 81 79 81 81 81 66 67 63 61 61 61 59 56 54
86 87 72 84 69 65 81 80 77 78 80 74 70 68 69 69 66 78 81 75 74 72 79 78 79 79 74 81 81 79 80 63 60 60 60 60 57 71
90 89 91 67 63 60 68 80 78 81 75 77 72 72 74 77 79 78 79 79 77 78 75 80 77 77 76 75 79 80 81 79 80 77 59 57 56 61
89 92 90 63 60 57 63 67 61 68 78 72 71 74 76 78 80 80 78 79 81 78 74 76 75 75 74 72 72 78 79 79 79 78 78 70 56 56
92 84 74 58 57 58 62 59 60 72 75 71 73 76 80 82 80 78 78 77 76 77 78 76 75 74 74 71 71 73 73 76 78 77 77 77 76 76
68 76 66 66 66 69 63 63 70 71 74 73 70 73 77 80 75 78 77 73 73 75 75 76 73 72 71 72 73 71 74 71 76 76 75 75 76 76
75 71 68 68 65 65 65 65 67 69 70 69 68 68 71 75 78 79 76 74 73 75 75 74 73 73 74 70 69 72 72 73 75 74 71 71 73 74
70 68 66 67 65 65 66 66 67 67 70 69 67 68 69 72 77 75 74 75 75 75 75 77 73 72 73 71 70 72 73 73 73 72 71 70 69 73
72 68 67 66 66 66 67 66 66 69 69 69 68 67 71 77 74 74 75 75 75 75 76 77 75 72 68 67 74 64 71 71 71 70 71 69 67 69
71 68 66 66 66 66 67 67 69 70 69 67 67 69 76 77 74 75 76 75 74 75 74 75 73 72 69 68 69 72 56 69 70 69 67 69 69 62
69 67 68 67 67 68 68 67 71 71 74 70 73 75 77 77 74 76 77 63 68 74 72 72 75 64 75 73 68 69 74 54 63 67 67 66 65 65
68 68 68 68 68 69 72 71 73 70 72 73 77 77 77 77 77 77 77 75 73 74 74 76 70 73 71 69 68 69 72 74 60 57 57 60 63 59
65 67 67 67 68 71 72 73 76 76 77 78 78 77 77 77 78 79 78 78 76 74 73 73 74 74 71 71 68 70 69 71 73 70 72 57 57 56

GFSNE_sfc_temp_036.txt.gz
Temp
80 80 78 79 82 81 80 79 75 71 73 76 76 80 80 78 78 79 77 73 72 72 71 71 71 72 73 73 73 73 73 72 72 72 72 72 73 73
82 79 78 78 80 81 80 79 78 75 71 76 77 79 81 83 78 80 81 75 72 72 71 70 70 71 71 71 71 71 71 71 71 71 71 71 71 71
81 79 78 78 79 80 80 79 78 77 73 75 79 78 78 77 77 79 77 76 74 71 70 70 69 70 70 70 70 70 70 70 69 69 70 70 70 70
81 80 79 82 77 78 79 77 77 78 76 73 76 76 76 77 77 76 79 85 78 75 70 70 69 68 68 68 68 68 67 67 67 67 68 68 68 68
82 80 80 79 77 78 77 77 78 78 78 74 73 76 76 77 75 76 76 76 81 73 70 69 68 68 67 66 66 65 64 63 64 64 64 65 66 67
83 82 81 80 78 77 77 75 77 76 75 74 73 73 75 75 76 74 72 74 74 83 78 75 71 69 68 66 66 65 62 61 61 61 62 62 63 64
84 84 83 82 77 77 79 77 75 75 75 75 73 73 73 74 73 73 71 73 73 75 73 77 75 71 72 68 70 68 65 63 62 61 60 60 59 60
82 83 84 78 76 73 73 74 77 74 73 75 74 73 72 75 75 73 72 70 69 74 71 73 75 74 76 75 72 70 67 65 63 61 60 59 59 59
82 82 84 87 78 79 71 71 70 71 74 76 74 75 75 76 75 73 73 71 70 71 71 68 73 71 73 71 67 66 66 64 63 62 61 60 58 58
84 83 82 83 82 81 78 76 77 75 74 77 78 77 76 77 77 75 73 73 73 72 72 66 71 69 72 69 66 66 65 66 63 61 60 59 57 56
84 84 83 82 77 69 80 76 75 76 71 68 69 71 70 70 74 74 71 70 68 69 72 69 69 69 69 69 65 64 63 64 62 62 61 59 57 55
83 83 72 81 71 64 78 78 75 75 76 75 72 67 66 67 67 73 74 69 68 67 72 69 68 68 63 68 66 64 63 60 59 59 59 58 57 56
84 84 85 67 64 60 67 80 77 78 73 76 73 71 69 69 68 69 74 73 71 70 70 70 68 66 65 63 66 67 67 64 63 61 57 56 55 57
84 86 85 65 60 58 62 70 64 68 78 75 70 68 67 68 69 69 69 73 74 71 68 69 66 65 63 61 60 64 64 65 65 64 64 62 57 55
85 80 62 58 58 59 60 64 62 75 76 73 70 68 69 69 69 69 70 71 70 69 71 68 67 66 64 60 59 60 60 62 64 63 63 62 62 62
72 77 77 65 64 66 67 65 75 75 75 73 70 70 70 69 68 69 67 66 64 66 69 69 67 65 61 61 60 59 61 58 62 62 62 61 62 62
75 80 79 78 76 71 70 72 74 74 72 72 70 68 68 67 66 66 65 63 63 65 65 67 66 65 64 62 59 59 59 60 63 61 60 58 60 61
71 77 75 73 71 71 69 70 71 70 71 70 68 67 66 65 64 64 64 66 65 66 66 66 64 61 61 62 64 59 60 60 61 61 60 57 56 59
75 75 74 72 70 70 69 70 69 70 70 68 67 67 66 65 63 64 68 67 66 67 66 66 65 61 58 57 62 64 60 59 59 59 59 57 55 56
75 75 73 72 70 69 68 69 68 68 68 68 67 66 65 64 64 64 66 66 67 65 64 64 63 62 59 58 59 60 55 59 59 58 57 58 59 61
67 69 71 71 70 69 69 68 68 68 68 67 67 66 65 64 64 66 68 63 65 65 62 62 63 64 63 62 58 57 60 55 60 59 58 56 54 53
63 65 66 68 69 69 68 68 67 66 66 66 66 66 65 65 66 69 70 65 66 66 64 63 61 61 61 60 58 58 60 60 57 57 59 59 54 49
68 67 67 67 67 66 67 68 67 66 66 66 68 68 67 69 71 71 71 69 68 65 64 61 61 62 60 60 60 60 61 61 60 57 59 58 58 57

GFSNE_sfc_temp_039.txt.gz
Temp
73 73 72 72 72 73 74 72 70 64 65 71 72 74 74 73 75 75 73 72 72 71 70 70 71 72 72 72 72 72 72 72 72 72 72 72 72 73
75 73 72 71 72 72 73 73 71 68 66 69 72 73 74 77 76 74 75 73 71 70 70 69 70 70 70 70 71 71 71 71 71 71 70 70 71 71
75 73 72 72 72 71 71 72 71 70 68 69 71 72 71 72 72 72 74 71 71 70 70 69 68 69 69 69 69 69 70 70 70 70 70 70 70 70
74 73 73 76 71 71 71 71 72 71 70 68 69 71 71 71 72 71 74 78 72 71 69 68 68 67 67 67 67 67 66 67 67 67 68 68 69 69
77 75 75 74 73 75 70 70 70 72 70 68 68 68 70 70 69 70 71 72 75 75 68 68 68 68 67 65 65 64 63 63 63 63 64 64 66 67
77 78 78 75 76 75 73 70 71 69 68 67 67 68 68 69 71 70 67 68 70 77 74 71 69 68 67 66 65 64 61 60 61 61 61 61 62 63
79 79 79 79 76 76 77 73 72 69 67 67 65 66 68 66 70 68 70 69 68 70 69 69 68 71 70 68 69 68 64 63 61 60 60 59 59 59
78 79 80 76 75 71 71 73 76 75 74 71 74 70 73 73 68 72 71 65 65 69 69 67 72 68 71 68 70 68 64 64 62 61 60 59 59 58
81 80 80 83 75 78 70 70 71 70 75 77 74 74 73 76 73 71 68 65 66 68 67 65 67 68 70 72 67 65 63 64 62 62 60 59 58 57
82 81 81 81 81 78 78 74 75 75 74 76 78 79 75 72 77 73 69 69 67 68 67 64 67 67 67 66 65 65 63 62 62 61 60 58 57 55
83 82 82 81 76 67 78 75 75 76 72 67 70 71 68 68 72 71 66 65 64 65 68 67 66 66 66 63 63 63 62 61 61 61 60 58 56 54
83 83 71 78 69 64 77 78 74 75 77 76 70 66 67 69 68 74 67 65 63 63 67 67 65 65 63 62 61 61 60 58 57 57 58 57 56 54
82 82 83 66 61 60 63 81 78 78 75 76 75 75 70 67 68 69 68 68 65 64 68 71 65 64 63 61 62 60 59 59 58 58 55 54 54 55
81 84 83 65 60 59 60 67 64 66 78 75 75 71 68 67 67 68 69 68 68 67 69 70 65 65 61 58 60 59 59 59 59 58 58 57 55 53
83 79 70 61 58 59 60 62 61 73 77 75 74 73 70 69 69 68 69 68 67 66 66 65 68 65 62 59 57 57 58 58 58 58 56 57 57 56
70 75 72 69 68 69 66 62 70 76 77 77 77 74 69 67 67 67 66 66 63 62 65 66 64 65 60 59 58 56 55 57 56 55 56 55 56 55
69 74 76 76 74 75 71 72 69 71 73 74 73 72 68 67 66 67 66 65 63 61 62 63 64 63 62 59 56 55 54 54 56 56 54 52 53 56
63 70 72 74 75 75 74 72 69 69 72 73 72 70 68 67 66 66 65 64 63 61 61 65 60 58 57 58 61 55 53 54 55 55 53 52 51 54
66 70 70 72 74 75 74 73 70 70 72 72 71 68 68 67 65 65 64 63 62 60 60 60 61 58 53 51 56 60 57 54 53 53 53 52 51 52
63 65 68 70 71 72 72 72 71 71 71 72 71 69 68 66 64 64 63 62 61 61 61 62 62 61 58 55 54 56 56 55 53 52 51 51 52 57
61 60 62 63 64 66 68 70 70 70 70 71 70 68 67 65 63 63 62 58 59 62 61 61 64 63 59 57 54 53 55 54 56 54 52 50 48 48
60 62 64 65 65 65 65 66 68 68 69 69 69 69 65 64 63 62 61 60 61 63 65 61 59 60 56 55 52 52 54 55 53 56 57 57 51 46
62 63 63 63 64 65 65 65 66 66 68 68 67 64 63 62 62 62 62 63 64 63 58 55 55 55 55 55 54 52 52 54 53 52 53 55 57 56

GFSNE_sfc_temp_042.txt.gz
Temp
71 72 69 70 70 70 69 69 68 62 63 69 69 71 73 72 74 74 72 73 71 70 69 69 70 71 72 72 73 72 72 72 72 72 72 72 72 73
72 71 70 70 70 69 69 68 67 67 64 68 69 70 72 76 74 74 73 73 71 70 69 69 69 70 70 71 70 70 71 71 71 71 71 71 71 71
73 72 71 71 71 69 68 68 67 66 66 67 67 69 68 69 71 69 71 71 71 69 69 68 68 68 69 69 69 68 69 69 69 70 70 70 70 70
74 72 73 75 69 68 68 68 68 67 67 66 66 67 69 68 69 69 73 76 73 72 68 67 67 67 66 66 66 66 65 66 66 67 68 69 69 69
75 74 75 73 73 71 67 69 67 69 66 66 67 66 67 67 66 67 68 69 73 73 68 67 67 67 66 65 64 62 62 62 62 63 64 65 66 67
76 76 76 74 74 72 70 69 68 67 65 65 64 65 66 67 67 69 66 67 70 75 74 71 68 67 67 64 64 63 60 59 59 60 60 61 62 64
76 76 77 76 74 75 76 74 68 69 65 64 63 63 64 65 67 66 71 73 70 68 68 69 67 67 69 66 68 67 62 60 59 59 59 59 59 59
77 77 77 74 73 70 70 73 74 72 72 71 72 71 72 68 65 71 71 62 65 68 67 71 68 69 71 71 69 66 63 62 61 59 59 58 59 58
79 79 78 80 74 76 69 69 70 69 74 77 74 76 74 75 72 66 67 65 70 66 67 69 66 70 72 73 66 65 63 61 60 60 60 60 59 58
80 80 79 79 79 76 77 73 73 75 74 76 79 78 79 79 76 77 73 71 66 65 65 67 64 66 68 69 66 65 62 60 60 60 59 58 56 55
81 80 80 80 74 67 76 75 74 74 72 67 69 70 68 67 71 68 65 65 64 64 65 65 63 64 66 67 67 63 61 59 59 60 59 58 55 53
81 82 70 76 67 63 74 77 75 76 76 76 72 69 65 69 65 76 72 66 66 64 66 65 63 63 62 65 65 63 61 58 57 57 57 56 54 54
80 81 82 66 61 59 62 78 78 80 77 76 76 75 74 71 69 72 72 75 69 66 66 67 63 61 61 61 61 60 60 57 56 56 53 53 52 55
80 82 82 65 59 58 60 65 63 65 78 78 75 75 73 72 71 71 72 71 73 71 67 69 63 61 57 56 61 58 58 56 57 56 56 55 53 52
81 77 67 61 58 59 59 61 60 71 74 74 75 75 76 74 72 70 70 70 69 68 67 65 63 60 62 66 60 55 59 57 55 56 54 55 56 54
66 72 69 65 61 66 66 65 66 72 73 74 75 78 76 72 69 69 68 67 67 65 65 65 63 60 56 59 60 58 57 56 53 53 54 53 52 53
67 70 71 72 73 73 74 73 73 68 68 71 72 73 74 72 69 69 67 67 66 64 61 62 62 61 60 58 55 58 55 54 53 52 52 52 51 53
64 66 68 69 70 71 73 74 74 71 70 70 71 72 72 73 68 67 67 66 65 64 63 60 58 57 56 59 63 57 53 55 51 52 50 51 49 50
65 65 67 68 69 70 71 72 73 74 74 71 71 71 72 72 68 67 66 65 64 62 62 60 58 57 54 54 56 58 55 52 51 50 51 50 50 51
60 60 60 61 61 63 63 64 65 67 68 70 71 71 71 71 70 67 65 65 64 62 61 60 59 58 60 58 55 57 55 53 52 51 49 48 49 54
58 58 59 60 63 65 65 65 65 65 65 65 66 67 69 70 69 69 67 58 60 61 59 58 60 60 56 58 56 53 53 53 58 56 50 49 47 45
58 59 61 63 63 65 65 65 65 65 65 65 66 67 66 64 63 62 62 61 61 61 60 60 58 56 56 55 53 53 53 52 53 55 57 56 50 46
60 60 61 61 62 62 62 63 64 65 64 64 63 63 64 63 63 62 62 61 61 58 56 54 56 59 55 56 55 52 52 52 51 50 51 55 56 56

GFSNE_sfc_temp_045.txt.gz
Temp
70 70 68 68 68 68 67 67 67 62 62 66 68 69 71 70 72 71 71 72 71 70 69 69 70 71 72 73 73 73 73 73 72 72 72 72 72 73
70 69 69 68 68 67 67 66 65 66 63 66 68 68 69 73 73 72 73 72 71 70 69 69 69 70 70 70 71 70 71 71 71 71 71 71 71 71
72 71 70 69 68 67 66 65 65 64 64 66 65 66 67 67 70 71 71 70 71 69 69 68 68 68 69 69 69 69 69 69 69 70 70 70 70 70
73 72 72 73 68 67 66 66 66 64 65 64 65 66 66 66 68 68 71 74 72 71 68 68 67 67 67 67 66 66 66 66 66 67 68 69 69 69
74 73 74 71 71 69 67 66 65 66 64 64 64 65 66 64 64 66 66 67 71 73 68 67 67 67 66 65 65 63 62 62 62 63 64 65 67 68
75 74 75 73 74 73 69 68 67 66 63 63 63 64 65 66 64 64 64 64 70 74 73 71 69 68 67 64 64 63 60 59 59 60 60 61 62 64
74 75 75 75 73 74 75 72 68 68 67 67 66 62 63 63 63 64 70 74 68 69 70 68 69 67 67 65 68 67 63 61 59 59 58 58 59 60
75 74 76 74 73 69 69 72 74 72 71 70 72 71 71 70 67 73 69 62 65 66 70 72 69 70 71 69 69 66 63 62 60 59 58 58 58 58
77 77 77 78 73 76 69 68 69 68 73 77 72 74 73 75 73 66 72 71 73 67 72 72 68 71 75 73 67 65 63 61 60 60 59 59 57 57
78 78 78 78 78 75 75 74 71 73 73 73 77 79 78 78 76 77 75 73 71 64 67 71 65 71 75 72 66 65 62 61 60 59 59 58 56 56
79 79 79 78 73 66 75 74 74 75 70 66 68 69 68 67 74 72 66 65 65 66 64 72 64 64 62 63 65 64 61 59 59 58 59 58 56 53
78 79 69 75 67 63 73 75 73 75 77 76 73 68 67 71 64 75 77 68 70 63 66 65 64 62 61 61 63 63 62 57 57 57 58 57 54 55
78 78 80 65 61 60 61 78 77 78 77 77 79 78 77 76 75 71 75 70 67 70 67 66 65 62 62 57 60 61 61 61 60 57 54 54 52 56
78 79 79 64 59 58 60 65 62 64 76 76 76 77 77 76 74 72 70 70 70 71 72 69 66 64 62 57 58 57 60 64 62 60 59 54 51 52
80 76 65 59 57 58 57 59 59 68 70 71 72 74 77 80 77 74 71 71 71 71 70 68 68 66 65 62 56 55 57 58 59 59 56 56 55 52
67 70 67 64 62 65 66 64 65 68 70 70 72 75 77 75 74 74 71 69 68 69 70 69 69 66 64 64 61 55 55 56 58 57 56 53 53 54
68 69 70 71 71 71 72 72 72 69 67 68 69 70 71 72 73 74 72 70 68 68 67 66 67 67 66 62 57 55 52 55 59 56 54 52 51 52
66 68 68 68 68 68 68 69 70 70 71 71 71 71 70 71 71 71 72 70 68 68 67 64 63 58 57 57 60 55 56 55 55 57 53 52 50 50
67 66 66 64 63 62 61 62 62 63 64 64 65 65 66 68 68 69 70 68 68 68 68 64 61 62 57 53 54 56 53 51 55 53 52 52 51 50
62 60 59 59 59 62 62 63 63 63 64 64 65 65 66 65 65 66 67 67 67 67 65 60 60 60 58 53 51 53 52 54 59 54 50 47 48 53
58 57 58 60 63 64 64 64 64 63 64 64 64 64 65 66 65 65 63 53 59 60 58 58 59 57 55 55 52 51 53 52 58 57 49 48 47 45
57 58 59 59 60 60 62 63 63 63 64 64 64 63 64 63 62 62 61 60 60 61 60 58 56 56 56 56 51 54 52 52 52 55 58 56 51 46
58 59 59 61 62 63 63 62 63 63 64 64 63 63 63 60 60 61 61 61 60 58 57 56 56 55 52 55 54 52 52 52 51 52 53 53 55 56

GFSNE_sfc_temp_048.txt.gz
Temp
74 74 73 73 73 73 72 73 72 70 71 75 74 75 75 76 76 78 76 73 71 70 69 69 70 71 72 73 73 73 73 73 73 72 72 72 73 73
75 73 73 74 73 73 73 72 71 72 70 73 75 75 75 77 76 76 76 73 71 70 69 69 69 70 70 71 71 71 71 71 71 71 71 71 71 72
75 74 73 73 75 73 72 72 71 71 70 73 72 74 74 73 75 76 76 75 76 69 69 68 68 68 69 69 69 69 69 69 69 70 70 71 71 71
75 75 75 75 73 73 73 71 71 70 71 69 72 73 72 74 74 73 75 77 76 73 68 68 67 67 67 67 67 67 66 66 67 67 69 69 70 70
77 76 76 75 75 74 73 73 72 72 70 69 73 72 73 74 72 71 72 73 76 73 68 67 67 67 66 65 64 63 62 62 63 63 65 66 67 68
77 77 77 76 76 76 75 74 74 72 70 70 71 71 72 74 72 73 73 72 74 78 76 73 70 69 67 65 64 64 61 60 60 60 61 62 63 65
76 77 78 77 74 75 78 76 74 73 74 72 72 73 71 71 71 76 71 76 74 75 75 76 76 75 76 67 70 66 63 61 60 59 59 59 59 60
75 76 77 74 73 69 69 71 75 73 73 73 74 73 73 74 75 74 73 73 73 72 73 75 77 76 77 77 71 67 63 62 60 59 58 58 58 58
77 77 77 79 74 77 70 68 68 68 71 77 74 74 74 76 75 72 71 73 74 78 73 75 77 74 78 78 67 65 63 61 60 60 58 58 58 57
78 78 77 78 78 76 77 77 76 75 73 74 75 77 79 79 77 76 74 73 75 76 72 72 79 73 77 78 66 65 62 61 60 59 57 56 56 55
79 78 78 78 72 66 76 76 76 77 71 66 67 67 66 66 70 77 72 68 70 73 70 73 75 69 70 69 69 64 62 60 59 58 57 56 55 54
78 78 69 75 66 63 75 76 75 77 79 79 78 70 67 71 65 70 73 68 67 67 72 66 69 66 63 67 67 66 64 59 57 57 57 56 54 64
77 78 80 65 61 59 61 77 76 77 76 76 77 78 79 78 76 73 71 70 69 70 78 71 72 70 66 63 62 64 64 62 62 59 54 54 53 63
78 80 79 63 59 58 60 63 61 63 74 74 74 74 76 78 80 78 76 75 76 75 77 70 68 67 65 64 61 63 64 65 64 62 60 55 52 55
80 75 66 59 57 58 57 58 58 66 68 69 70 73 76 78 78 76 77 75 74 73 72 72 68 68 66 64 63 61 61 60 62 61 59 57 59 60
66 71 67 65 63 66 67 65 65 67 69 70 71 75 77 75 73 74 73 75 73 73 73 71 70 69 67 66 65 61 63 59 60 60 58 60 60 62
69 71 71 71 72 72 72 72 73 72 69 70 69 70 71 71 72 74 72 71 69 71 70 72 71 70 69 69 64 63 61 57 59 56 56 55 58 60
68 70 70 70 69 69 69 69 70 67 68 66 66 66 66 66 67 69 69 68 66 67 68 69 67 65 66 59 59 61 57 54 56 55 57 54 53 56
70 68 67 67 65 65 66 66 67 67 68 67 65 66 66 67 66 66 66 66 66 67 68 69 68 67 60 51 54 57 53 52 53 53 53 52 54 56
65 65 64 64 65 66 66 67 67 66 67 67 66 68 67 65 64 65 65 64 62 64 62 60 61 59 56 56 53 53 52 53 54 51 49 51 53 55
62 63 64 65 66 67 66 65 65 64 64 66 66 66 65 64 65 66 65 57 57 60 58 57 55 56 57 58 54 51 52 51 53 54 51 54 56 56
63 64 64 65 64 63 64 64 65 64 65 65 65 66 66 66 65 65 66 64 61 59 57 57 59 62 59 60 54 51 50 52 53 55 55 57 60 55
62 62 63 63 63 64 64 64 65 65 65 65 65 65 66 64 66 65 64 65 63 60 58 56 57 58 59 58 56 54 52 53 54 56 59 53 56 56

GFSNE_sfc_temp_051.txt.gz
Temp
84 83 84 87 87 86 85 85 84 80 83 89 88 88 89 90 87 88 87 78 71 70 70 70 71 71 72 73 73 73 74 74 74 73 73 73 74 74
86 83 83 87 86 86 86 85 84 83 81 88 89 88 88 90 87 84 86 77 72 70 69 69 69 70 71 71 71 72 72 72 72 72 72 72 72 73
84 83 83 83 86 87 85 85 84 83 81 87 87 88 83 84 87 86 85 85 87 70 69 69 68 69 70 70 70 70 70 70 70 70 71 71 71 71
83 83 83 86 81 83 85 81 83 84 82 78 84 86 83 85 85 83 86 91 89 80 69 68 68 67 67 68 67 67 67 67 68 68 69 70 70 70
85 84 84 84 82 85 83 84 85 83 82 80 82 87 86 87 85 84 82 84 87 79 70 67 67 67 66 65 65 64 63 63 64 64 65 66 68 69
85 86 85 85 83 83 84 83 83 83 84 82 83 84 85 85 84 82 84 88 87 91 84 79 75 70 67 65 65 64 62 60 60 61 61 63 64 66
85 85 86 83 77 79 86 85 83 83 84 84 83 85 85 86 83 87 85 87 86 88 86 89 89 86 83 68 73 67 64 62 60 60 59 60 61 62
83 85 85 78 77 70 69 71 79 82 80 83 85 84 82 83 86 85 85 83 82 92 85 84 88 88 89 90 78 71 65 63 61 60 59 59 59 60
84 84 86 90 79 85 74 68 68 67 71 81 80 82 82 83 83 81 81 81 81 86 83 81 87 85 87 91 72 68 66 63 62 61 60 60 58 58
85 85 85 85 86 84 85 85 85 85 81 80 80 82 84 85 84 83 81 78 78 83 82 76 85 85 88 89 73 68 65 63 61 60 59 58 56 56
85 85 85 85 76 67 81 82 83 85 79 68 69 69 67 65 70 80 75 73 71 76 84 80 82 82 85 87 87 66 64 62 61 60 60 58 55 54
84 84 70 78 67 63 80 82 81 83 85 86 86 74 68 75 65 70 73 69 71 73 84 80 82 82 74 83 83 82 72 60 59 58 59 57 53 59
85 87 88 65 61 60 61 82 81 82 81 84 81 80 80 81 80 79 75 71 71 71 77 74 72 73 71 69 72 73 72 70 62 59 56 53 53 59
84 88 86 64 59 58 62 64 61 64 79 76 75 76 74 75 79 80 80 79 79 75 79 76 72 70 69 68 66 67 67 67 64 62 61 57 53 54
86 79 67 60 57 61 58 59 58 68 70 70 70 71 75 80 80 78 83 84 83 83 81 79 74 75 72 69 67 69 63 64 63 63 63 60 57 57
70 78 75 68 64 70 71 65 67 67 68 69 71 76 79 81 83 84 82 83 81 81 82 82 79 74 70 69 69 68 69 61 64 63 62 60 57 57
74 77 75 75 74 74 75 74 74 72 70 73 73 75 79 79 79 80 79 79 74 74 76 77 76 76 72 69 67 67 65 60 62 60 58 55 55 56
72 74 74 72 72 73 73 73 72 71 79 75 73 75 74 72 73 74 74 73 69 71 72 75 74 70 67 60 59 57 58 59 58 60 58 57 54 56
73 73 73 73 73 69 70 74 79 79 76 77 76 75 71 71 69 69 69 71 74 70 71 72 68 64 61 54 57 54 58 57 57 57 58 58 54 53
74 74 69 68 69 72 78 79 79 78 76 75 72 72 74 69 67 69 75 73 69 69 72 66 60 63 62 62 56 53 50 57 57 54 50 51 52 55
65 66 69 72 78 78 75 74 73 72 72 72 69 68 69 67 67 73 75 61 61 70 65 61 61 59 72 70 58 52 53 51 56 56 56 56 51 52
68 68 69 70 70 72 69 72 72 68 69 69 68 69 69 69 69 71 70 71 67 63 61 63 69 72 73 73 61 54 52 52 52 53 53 56 60 58
64 64 63 62 61 62 63 67 68 70 70 69 69 68 70 68 69 70 67 68 69 67 63 64 69 70 65 65 59 56 53 54 55 56 54 52 54 57

GFSNE_sfc_temp_054.txt.gz
Temp
89 88 89 94 94 94 94 92 88 84 89 92 94 95 97 98 93 94 92 79 72 71 70 70 71 72 73 74 74 74 75 75 75 74 74 74 75 76
92 89 88 94 93 93 93 93 92 89 86 95 96 96 96 97 94 92 92 80 73 71 70 69 70 71 72 72 72 72 72 73 73 73 72 72 73 74
89 89 87 88 92 94 94 93 92 91 87 92 97 97 90 88 91 93 93 92 94 72 70 69 68 69 70 71 71 71 71 71 71 72 72 71 72 72
88 88 88 91 87 87 92 88 90 91 89 83 89 92 90 92 90 87 91 97 97 86 71 70 68 68 68 68 68 69 69 69 69 70 70 70 71 71
89 89 88 88 86 90 90 91 93 90 90 88 87 93 94 95 92 90 89 90 94 83 73 69 68 67 66 66 65 65 64 65 65 66 66 67 69 70
90 90 90 89 88 87 88 87 88 88 90 89 90 91 93 94 94 91 89 94 95 99 89 81 79 73 68 65 65 65 62 62 62 63 63 64 65 67
90 90 91 88 80 82 91 89 88 89 90 91 90 92 93 94 91 94 92 94 94 97 96 97 97 96 92 68 74 67 65 63 61 61 61 61 62 63
88 90 90 81 80 72 71 71 77 85 85 87 89 88 87 89 93 92 92 90 87 96 92 92 96 94 95 96 81 72 65 64 63 61 61 60 60 61
89 89 91 96 84 91 74 69 70 69 70 81 82 84 85 87 88 86 86 87 86 90 85 84 90 90 94 97 75 69 66 64 62 61 61 60 60 60
90 90 89 90 90 90 91 90 90 90 83 83 83 85 86 87 87 85 82 81 86 87 83 76 88 86 92 93 76 70 66 64 61 61 60 59 58 58
89 90 90 89 79 69 87 86 87 89 84 69 71 71 69 67 72 85 81 82 81 85 90 83 87 85 90 93 94 74 66 63 60 60 60 58 56 55
88 88 73 82 70 65 84 85 84 87 89 90 91 81 69 74 66 77 83 74 76 75 89 83 87 85 75 83 83 82 84 60 58 57 59 57 55 63
92 94 95 67 64 63 62 85 83 84 83 87 86 88 90 92 91 86 82 77 74 74 84 77 76 78 74 73 83 85 81 80 67 68 54 54 53 60
91 96 93 64 59 59 64 66 62 66 85 84 85 87 84 82 83 83 84 84 83 76 81 84 82 83 81 78 74 82 76 72 71 66 63 56 54 57
91 84 65 60 56 62 58 60 59 82 84 80 77 76 79 78 84 85 85 87 87 88 90 86 85 82 83 80 77 76 71 71 69 68 63 59 57 57
73 83 79 70 64 71 77 74 83 86 81 75 72 73 79 82 85 90 88 88 87 87 87 86 83 81 78 79 75 72 73 67 66 65 62 60 59 57
81 87 87 85 84 85 84 83 82 78 72 72 75 78 84 87 86 87 86 85 83 82 83 86 83 81 68 60 61 64 63 64 67 63 58 56 55 56
81 85 79 78 78 79 79 78 77 73 77 78 83 85 84 84 83 83 82 79 76 81 81 83 80 78 77 65 58 59 61 59 60 59 58 54 54 55
85 79 78 79 78 77 77 77 80 79 81 83 85 84 84 82 78 78 76 79 82 81 81 80 76 75 71 69 66 54 58 58 59 58 58 59 55 55
77 76 76 74 73 74 76 79 80 85 84 83 83 83 82 79 74 72 79 82 80 78 80 80 76 74 70 68 62 57 50 60 57 54 52 53 53 56
73 73 74 76 76 77 77 79 83 84 81 82 82 79 79 76 72 71 78 63 64 76 76 76 75 63 72 72 71 57 56 51 57 57 56 55 52 52
75 74 74 76 72 75 78 80 80 78 79 77 76 75 74 74 73 73 74 73 75 76 75 76 76 76 75 74 72 60 57 56 53 53 54 56 56 51
75 70 69 66 70 70 76 80 79 77 74 74 74 74 73 71 76 77 76 71 71 78 75 73 75 74 74 72 64 64 54 55 55 56 56 54 54 56

GFSNE_sfc_temp_057.txt.gz
Temp
89 88 89 94 96 96 95 93 89 84 89 90 94 97 98 99 95 94 93 79 73 72 71 71 71 72 73 74 74 75 75 75 75 75 75 75 76 77
92 89 88 93 95 95 95 95 93 89 85 95 97 98 99 99 94 94 94 82 73 72 71 70 70 71 72 72 72 73 73 73 73 73 73 73 73 74
90 91 89 89 92 95 95 94 93 92 88 92 97 97 94 90 92 93 92 93 94 72 71 70 69 70 70 71 71 71 71 72 72 72 72 72 72 72
89 89 89 92 88 88 91 90 91 91 90 83 88 91 89 91 91 89 92 96 95 86 70 70 69 68 68 68 68 68 68 69 69 70 71 71 71 71
90 90 89 89 87 90 90 91 93 91 90 88 88 93 94 95 93 91 90 91 96 85 77 71 69 68 67 66 66 65 64 64 65 66 67 68 69 70
91 91 91 90 88 88 88 88 88 88 89 90 90 92 94 95 96 93 94 98 96 100 91 84 80 72 69 66 66 65 62 61 62 62 63 64 66 67
91 91 91 89 81 83 91 88 87 88 90 90 91 93 93 94 90 94 92 94 94 96 96 97 98 98 95 70 73 68 65 62 61 61 61 61 62 64
88 90 91 81 82 73 72 72 77 83 84 87 89 88 85 88 93 91 90 88 85 95 91 91 94 92 94 95 80 70 65 64 62 61 61 60 61 63
89 89 91 96 84 91 75 72 72 70 70 81 81 82 83 85 86 84 83 85 85 89 86 86 91 88 92 96 77 72 66 64 62 61 60 60 60 61
91 90 89 90 91 90 92 91 88 88 84 84 82 83 85 86 85 86 84 83 86 90 86 82 90 89 95 97 76 72 69 63 62 61 59 58 58 58
90 90 91 90 79 71 88 86 87 89 84 70 70 71 69 68 73 82 82 82 83 86 88 84 88 89 90 89 91 76 70 64 60 60 59 57 55 56
88 87 73 82 71 65 84 86 84 86 89 90 91 83 71 78 66 78 85 77 79 80 87 82 84 85 81 88 90 91 85 70 60 58 57 56 54 58
92 94 95 69 66 64 63 86 84 84 83 88 89 90 89 89 86 81 84 80 78 77 84 82 83 84 85 84 87 89 88 84 82 77 54 53 52 58
92 98 95 68 61 62 65 68 62 66 86 86 85 86 88 88 90 89 85 86 85 84 86 85 83 84 82 81 80 86 84 84 81 77 76 60 52 53
91 81 64 60 58 60 57 62 61 83 84 84 84 87 87 87 79 78 86 86 85 86 90 88 85 82 82 81 78 77 73 74 76 73 70 59 55 55
74 84 81 71 63 72 78 72 83 86 85 83 85 83 81 79 83 88 87 89 87 88 90 89 85 81 79 77 74 72 69 62 66 65 59 57 58 58
81 86 87 87 87 88 88 86 83 82 83 85 82 78 79 83 84 89 87 86 83 83 84 87 85 78 73 69 71 69 64 61 60 58 56 54 55 56
80 87 87 88 89 89 89 86 83 78 83 79 77 79 82 86 86 87 85 83 80 81 83 84 81 80 74 61 65 65 61 60 59 58 56 54 53 55
88 88 89 89 86 86 81 79 79 80 79 79 83 82 86 86 82 83 82 81 81 84 83 83 79 77 73 73 67 55 58 60 58 55 58 59 55 55
89 88 84 84 83 81 81 82 81 80 81 84 84 86 86 84 83 81 80 80 82 81 79 81 81 77 73 71 71 64 50 62 59 56 56 56 55 55
84 82 81 81 81 79 79 76 79 81 77 81 85 85 84 83 81 80 79 66 68 77 74 78 80 66 76 75 70 66 63 51 59 62 57 55 53 54
77 76 80 79 77 77 78 79 80 77 78 81 82 82 79 77 79 79 78 76 76 78 79 79 77 73 73 72 71 65 66 59 55 54 54 55 55 52
77 76 74 75 74 75 74 75 74 77 77 80 75 74 74 73 78 78 80 79 75 75 78 80 80 75 72 73 66 70 61 59 59 57 57 53 54 56

GFSNE_sfc_temp_060.txt.gz
Temp
82 83 82 82 83 84 83 82 78 73 75 80 81 86 85 85 84 81 81 75 73 72 71 70 71 72 73 74 74 74 75 75 75 75 75 75 76 77
84 81 82 82 83 85 84 82 81 78 74 80 82 85 85 90 85 84 85 81 73 72 70 70 71 71 72 72 73 73 73 73 73 73 73 73 73 74
84 84 81 82 83 83 83 82 81 81 76 79 82 83 83 83 84 83 84 83 83 73 71 70 69 70 71 71 71 71 71 71 71 72 73 72 73 73
83 83 84 87 82 82 82 80 82 82 79 76 79 79 81 82 82 81 85 91 85 84 73 70 69 69 68 68 68 68 68 68 69 70 71 72 72 71
84 83 83 83 81 82 82 81 81 82 80 78 78 81 81 83 82 82 82 82 87 83 77 73 70 69 68 66 66 65 64 64 65 65 67 68 70 71
85 84 84 83 82 82 82 80 82 81 80 79 79 80 81 82 82 80 80 82 82 92 87 83 80 72 69 66 66 65 61 60 60 61 63 64 66 68
84 85 85 84 79 79 84 81 81 81 81 80 80 80 79 79 78 80 79 81 83 83 85 85 87 88 87 73 72 69 65 63 61 60 60 60 62 64
82 83 85 78 79 74 72 72 77 79 78 78 79 78 77 78 79 80 80 79 76 82 82 82 85 85 86 86 79 71 68 64 62 60 59 59 60 61
83 83 85 91 80 85 75 72 71 71 72 79 77 77 77 78 79 78 78 78 78 82 81 79 84 83 85 91 72 70 68 64 62 61 60 58 58 59
84 84 83 83 83 83 84 83 81 81 79 78 77 79 80 81 80 81 79 79 81 83 81 76 83 81 83 85 75 73 69 65 64 61 59 57 55 55
84 84 84 83 77 72 80 80 81 82 78 69 70 70 70 69 73 78 78 77 77 80 81 78 78 79 80 81 80 74 68 66 64 60 59 57 55 53
82 82 72 79 71 64 78 81 79 80 82 83 83 78 67 73 66 71 78 75 76 75 79 75 77 76 72 78 81 79 81 67 66 60 59 56 53 57
84 84 85 68 64 63 63 81 80 81 80 80 82 82 83 84 83 81 80 78 76 76 78 78 75 76 74 74 75 76 76 74 72 70 63 56 51 57
84 87 85 67 63 63 64 67 64 64 80 80 80 80 81 83 82 83 82 79 79 79 81 80 76 74 71 71 71 73 73 70 67 65 66 58 52 51
85 77 63 60 59 58 59 62 60 74 78 78 79 80 82 82 80 79 79 79 79 81 83 81 77 74 72 69 67 67 65 65 64 61 59 58 56 55
72 78 73 72 64 69 72 65 75 79 80 80 80 82 82 80 78 78 79 79 77 77 80 81 76 75 70 69 67 64 63 59 60 58 56 56 56 57
76 80 80 80 80 81 82 83 79 80 79 81 80 79 78 78 77 79 78 78 75 74 74 77 73 67 64 64 64 63 61 60 59 56 55 54 54 54
75 79 79 80 80 81 82 83 83 79 81 80 79 78 77 76 76 78 77 75 73 73 73 75 73 71 62 59 58 61 61 59 58 58 57 54 53 54
78 78 80 82 82 84 85 84 81 81 79 76 75 75 77 78 74 76 75 74 73 73 75 74 73 71 66 64 58 53 60 60 59 56 57 56 54 54
81 83 82 83 83 83 83 82 81 78 77 77 76 78 78 78 77 76 76 74 73 73 72 71 72 70 67 64 64 57 49 61 59 57 55 55 54 55
80 81 81 81 82 82 81 80 79 77 77 76 77 77 77 76 76 76 75 64 65 71 70 70 69 68 71 69 65 62 58 50 54 61 57 55 53 53
81 80 79 77 77 76 75 76 76 73 73 73 74 74 72 73 73 74 74 73 72 71 71 72 72 71 69 66 65 62 59 57 55 55 55 55 55 52
74 72 71 70 70 73 73 73 76 75 75 71 72 71 73 71 72 72 72 73 73 72 71 71 73 71 69 68 65 64 60 58 57 57 57 54 55 55

GFSNE_sfc_temp_063.txt.gz
Temp
75 75 75 75 75 76 75 75 73 67 68 75 76 78 79 79 79 77 76 74 72 71 70 70 71 72 73 73 73 74 74 75 75 75 75 75 76 78
77 75 74 74 75 76 75 76 74 72 69 72 76 78 80 84 82 79 79 77 74 71 70 69 70 71 72 72 72 72 72 73 73 73 73 73 74 75
76 75 76 76 75 75 76 75 73 73 70 73 75 76 76 77 79 78 79 79 79 72 71 70 69 70 70 70 70 70 70 71 71 72 72 72 73 73
77 76 76 80 76 75 75 75 74 75 73 71 71 74 76 78 78 78 83 86 81 79 74 71 69 68 68 68 68 68 67 67 68 69 70 71 71 72
77 77 76 76 75 75 75 74 74 76 73 71 71 74 75 76 77 77 78 78 81 79 74 73 71 70 68 66 65 64 62 62 63 64 66 67 69 70
78 78 78 77 76 76 76 75 75 74 73 72 71 71 73 78 75 74 73 74 76 85 82 79 75 74 72 68 66 65 62 60 60 60 61 62 64 66
77 78 78 78 76 75 78 75 75 74 73 72 72 72 72 72 72 73 71 76 77 77 76 80 82 84 83 77 74 70 66 64 61 59 58 58 59 62
77 76 78 77 76 73 71 72 76 75 73 72 72 71 71 71 72 71 75 70 69 76 75 80 83 81 82 80 73 70 67 65 63 61 59 58 57 58
79 79 79 85 76 78 73 71 71 69 71 78 73 74 73 76 74 73 73 73 73 79 75 77 80 75 80 82 72 69 67 65 64 62 60 59 57 56
80 79 80 81 77 77 77 78 76 77 76 75 74 78 78 78 76 78 76 74 76 78 76 73 77 76 76 79 71 69 64 64 63 61 60 59 56 54
80 81 79 79 73 69 75 74 75 75 75 68 69 69 69 68 71 72 72 72 73 75 75 73 73 73 73 72 74 68 65 61 60 60 59 57 54 53
79 78 69 77 69 67 76 78 75 76 73 75 74 69 66 70 66 70 75 70 70 73 75 73 72 71 69 71 73 70 72 62 59 58 57 55 52 57
80 80 81 66 62 61 62 76 76 78 72 74 74 74 75 75 78 74 71 72 72 73 74 73 71 71 69 67 67 66 65 63 62 62 57 55 52 51
80 82 82 67 62 61 62 65 64 64 71 72 71 71 72 77 78 76 77 76 76 77 78 75 73 70 66 64 63 63 61 60 61 60 59 56 55 53
84 79 70 65 61 61 61 62 61 68 73 69 72 75 74 78 76 75 75 76 77 76 77 75 71 69 66 63 62 58 57 58 59 58 57 56 55 56
71 72 67 68 67 68 68 61 66 70 72 73 74 75 75 75 74 74 73 74 71 72 73 72 70 68 64 62 60 57 57 55 57 54 56 56 55 55
72 77 73 72 75 72 71 71 66 69 71 73 73 73 74 73 73 73 73 73 69 68 68 67 61 60 59 61 58 56 55 54 54 54 55 54 54 54
70 74 73 74 74 74 73 73 73 72 74 73 73 73 73 72 72 72 72 71 68 66 66 67 64 61 58 57 58 56 55 55 54 55 57 54 53 54
75 73 75 74 75 75 76 76 77 75 76 75 75 74 74 73 72 69 70 68 67 66 66 66 65 64 60 59 55 53 56 57 57 55 55 54 53 53
76 72 74 75 76 77 77 76 75 75 74 73 73 72 72 71 70 71 69 67 66 65 64 64 64 63 61 60 59 54 48 56 56 55 53 54 54 55
73 73 73 73 73 75 74 75 75 74 73 73 72 72 72 71 70 69 69 62 62 64 63 63 65 65 64 64 59 53 52 51 54 57 55 53 51 51
72 72 72 74 73 73 72 71 70 70 71 70 69 69 69 68 66 67 68 66 64 64 63 64 64 63 62 61 59 56 52 51 52 54 57 57 55 52
70 69 69 69 69 69 68 68 69 69 69 68 66 66 66 67 68 66 67 64 64 63 63 63 62 63 62 61 59 57 53 52 51 50 52 55 55 55

GFSNE_sfc_temp_069.txt.gz
Temp
72 71 71 71 70 70 69 69 69 64 66 71 71 74 74 73 75 74 75 74 73 72 71 70 70 71 71 72 73 73 73 74 74 74 75 76 77 77
72 72 71 70 71 70 70 69 68 68 66 69 72 72 75 78 78 77 77 74 74 72 71 70 70 70 70 71 70 71 71 71 71 71 72 72 73 75
71 71 71 71 70 70 70 71 69 68 66 69 68 71 73 73 76 74 76 76 75 73 71 71 70 69 69 69 69 69 69 69 69 69 70 70 71 72
72 71 71 74 71 71 70 71 70 69 68 67 67 69 71 73 74 74 78 79 76 76 72 70 70 69 68 67 66 65 64 64 64 65 66 67 68 70
73 72 72 72 71 71 71 71 71 72 69 68 69 69 71 71 72 73 73 74 76 76 73 73 71 70 68 66 64 62 61 61 61 61 62 62 63 65
73 73 74 73 72 72 72 72 71 71 70 69 68 68 69 71 71 70 72 71 73 79 77 74 71 72 71 66 65 64 60 59 58 58 58 59 60 61
73 74 74 74 73 72 74 71 71 70 70 69 69 69 69 70 70 70 69 70 72 71 72 77 75 77 75 69 68 65 62 60 58 57 56 56 55 55
73 73 74 73 72 70 69 70 73 71 70 69 70 70 71 70 69 69 68 67 68 71 72 76 75 74 74 68 65 63 61 60 59 58 57 56 56 55
75 74 73 78 72 74 70 68 68 68 70 73 72 71 71 71 70 69 68 68 68 73 72 73 72 72 73 66 63 62 60 59 58 58 57 56 54 53
77 76 75 76 73 73 73 73 72 73 71 71 71 76 75 76 71 74 71 70 71 73 74 71 72 73 69 64 63 62 60 58 58 57 57 55 52 52
76 76 76 76 71 65 73 72 72 74 71 65 67 67 65 65 66 70 69 68 68 70 71 72 73 73 70 67 64 61 59 57 56 56 56 55 52 52
77 76 68 74 66 63 71 74 71 74 73 72 71 67 64 67 64 68 70 69 69 68 71 72 72 71 68 67 62 60 58 56 55 54 56 54 51 56
77 78 77 64 61 59 61 75 74 76 73 71 71 70 71 71 72 69 69 71 69 69 72 74 72 69 68 66 63 60 57 55 54 54 56 53 51 52
78 79 78 62 59 58 59 62 61 61 72 70 69 70 70 71 73 72 72 71 72 73 75 73 73 69 66 62 61 61 57 55 54 53 57 55 53 53
80 76 67 60 58 58 58 60 59 65 69 66 70 72 74 76 72 71 71 73 75 74 75 74 72 68 65 62 61 58 56 56 54 52 53 55 54 55
70 73 71 66 64 67 65 62 65 68 69 69 71 73 71 68 69 70 71 72 73 71 68 65 68 66 62 60 60 57 55 55 53 56 53 55 54 55
70 73 74 69 72 70 68 70 67 66 66 69 68 68 67 67 69 71 72 72 72 67 65 62 59 59 59 59 57 56 55 53 52 52 51 54 53 54
66 72 73 73 72 73 73 71 70 67 68 68 67 67 67 68 69 70 72 72 71 68 64 62 59 59 59 58 59 56 54 53 53 53 53 53 52 54
71 72 73 75 74 73 73 73 73 72 72 69 69 69 70 70 69 71 71 69 67 66 65 63 60 61 58 58 57 55 56 54 52 55 54 54 53 53
72 72 72 72 73 73 72 72 73 72 71 72 71 71 71 72 71 71 71 68 65 64 63 62 62 62 61 60 59 56 49 55 53 54 53 53 53 55
67 71 72 73 72 72 71 71 72 71 71 72 71 71 71 70 71 70 69 60 61 63 62 62 66 62 60 59 58 55 53 49 52 54 54 53 53 53
69 69 71 71 71 71 70 69 69 67 65 63 63 64 64 64 64 66 69 65 64 64 64 63 62 61 60 60 58 56 53 51 52 54 54 55 52 51
68 69 70 69 66 66 66 65 65 64 64 64 64 64 64 64 66 67 67 66 65 65 63 62 61 61 60 59 58 56 54 51 51 51 53 55 55 55

GFSNE_sfc_temp_072.txt.gz
Temp
76 76 76 77 76 76 75 74 74 72 73 77 78 80 81 82 80 83 82 75 73 72 71 70 70 71 71 72 72 72 72 72 72 72 72 73 75 76
76 75 75 76 76 75 76 75 74 74 73 75 78 78 81 83 82 82 82 74 73 72 71 70 70 70 71 71 70 70 70 70 70 70 70 70 71 72
75 75 75 75 76 76 76 76 75 74 74 76 75 78 78 79 82 82 82 83 84 73 71 71 69 69 69 69 68 68 68 67 67 68 68 68 69 70
76 75 75 77 75 75 75 75 75 75 75 73 75 77 77 79 79 79 82 85 83 79 71 70 69 69 67 66 65 64 63 64 64 64 64 65 66 67
76 76 76 76 75 76 76 76 76 77 75 74 75 76 77 79 80 80 80 81 83 77 73 72 71 69 66 63 62 61 59 59 59 60 60 60 61 62
76 76 77 76 76 76 76 76 77 76 75 74 74 75 76 78 77 76 79 81 80 85 79 75 71 71 66 64 63 62 59 57 57 57 57 56 57 57
77 77 77 76 72 74 78 77 76 75 75 74 74 74 75 76 76 78 75 77 80 79 80 84 84 84 77 68 68 64 61 59 58 57 56 57 57 57
76 76 77 74 73 69 68 69 74 76 75 75 75 74 76 75 77 76 75 75 74 80 78 81 84 82 78 75 64 62 61 59 58 57 58 57 55 55
76 77 77 80 74 78 70 67 68 67 70 77 75 76 76 78 77 76 75 74 75 80 77 78 82 80 76 73 63 62 60 59 58 58 56 56 54 53
77 77 77 78 77 77 77 77 77 77 76 76 75 77 79 79 78 79 76 75 76 79 78 73 82 80 72 72 63 61 59 58 57 57 56 55 52 52
78 78 78 77 70 65 77 76 76 77 72 65 67 67 66 65 70 76 75 72 75 78 79 77 79 76 73 74 70 61 58 56 56 56 57 54 52 52
77 76 67 75 65 62 74 76 75 77 78 79 77 70 66 71 63 73 77 73 74 74 78 75 77 75 75 76 73 71 70 57 55 54 55 54 51 59
77 78 79 63 61 58 62 77 75 77 75 77 79 79 79 78 78 74 75 76 74 74 78 76 75 74 72 74 75 72 70 67 66 63 56 53 52 53
77 79 78 61 58 58 59 62 61 62 76 76 75 76 76 77 79 78 77 75 78 78 81 78 73 74 74 72 74 72 69 67 66 64 62 56 54 54
80 75 66 59 57 59 58 59 58 69 72 73 74 76 78 79 79 76 77 77 76 77 77 75 74 74 74 70 73 72 69 68 66 63 62 59 56 57
70 74 71 68 65 69 68 65 69 72 73 73 75 76 77 75 75 76 75 75 76 78 72 69 70 73 70 71 71 71 68 68 66 61 62 60 59 58
67 74 76 75 74 74 73 74 73 72 71 73 74 74 73 73 73 74 73 74 74 77 74 66 64 69 70 70 70 68 68 67 65 62 61 59 59 58
66 72 72 74 74 74 75 75 74 71 74 74 73 74 73 72 72 72 73 73 73 74 74 71 65 67 68 67 66 69 65 65 63 61 58 58 58 58
72 72 72 74 74 74 75 76 76 76 75 75 74 73 72 72 69 73 74 72 73 74 74 67 64 65 65 68 68 58 67 63 60 60 58 59 56 56
73 73 74 74 75 75 75 74 76 77 75 74 73 73 73 73 72 72 74 73 72 72 69 68 67 65 69 70 70 67 51 64 63 62 58 57 57 55
68 72 74 75 74 73 73 74 74 74 74 74 73 73 73 72 71 72 72 63 65 68 67 66 67 64 66 67 67 66 63 50 58 64 60 58 56 56
72 71 73 74 74 74 73 73 73 73 73 74 74 73 71 71 71 71 70 68 66 68 68 67 65 65 65 68 69 67 64 61 54 53 56 59 59 58
73 72 72 72 73 73 73 72 73 74 73 71 68 68 68 67 67 67 66 65 66 66 65 64 63 63 64 65 65 64 64 63 62 60 62 55 55 56

GFSNE_sfc_temp_075.txt.gz
Temp
85 84 86 89 88 89 88 87 85 82 85 90 90 92 93 95 88 93 92 77 73 72 71 70 70 71 72 72 72 72 72 72 72 72 72 72 73 74
87 83 84 88 87 88 88 88 86 85 83 90 91 89 90 93 91 91 92 77 76 73 71 70 70 70 71 71 70 70 70 70 70 70 69 70 70 71
84 83 83 84 87 88 88 88 87 86 83 89 88 90 86 88 90 91 93 93 94 76 72 70 69 69 69 69 68 68 68 67 67 67 67 67 67 68
84 83 83 86 83 83 86 83 85 85 84 81 86 88 86 87 87 87 90 95 92 82 72 70 69 68 66 65 65 64 63 63 63 63 63 62 62 62
85 84 84 84 82 86 84 86 87 86 85 84 85 88 88 89 87 90 88 89 94 81 76 75 71 67 65 63 62 60 58 59 59 59 59 59 60 61
85 85 85 85 83 84 85 84 85 84 85 84 85 86 88 88 87 88 88 92 90 94 87 79 74 68 65 63 63 62 59 58 57 58 58 58 60 59
85 85 86 84 77 79 87 85 84 84 86 85 85 87 87 87 85 88 87 88 90 90 90 93 95 93 82 68 68 64 61 60 58 57 57 56 56 56
84 85 85 78 76 70 69 71 77 82 81 84 86 84 82 84 88 87 86 84 83 94 86 88 94 91 91 89 63 63 61 59 58 58 57 56 56 55
84 85 87 90 80 86 72 68 68 67 70 82 81 82 82 84 84 82 83 84 84 88 87 86 92 90 91 82 63 62 60 59 58 57 57 56 54 54
86 86 85 86 86 85 86 86 86 86 82 82 82 84 85 86 85 85 83 81 85 88 88 81 91 89 91 85 63 62 60 59 58 57 56 54 52 52
86 86 86 85 76 67 83 84 84 85 78 68 68 68 68 66 72 85 84 85 85 88 91 86 89 88 88 87 79 62 59 58 56 56 56 54 52 52
84 84 69 80 69 63 79 83 82 84 87 87 87 75 69 76 63 78 86 83 86 85 90 85 88 88 84 89 86 80 77 58 57 56 56 54 51 71
85 87 87 65 62 59 63 83 82 84 82 85 86 88 89 88 89 83 84 86 86 86 89 86 87 86 82 79 85 85 82 80 80 74 57 54 52 56
84 88 86 63 58 58 61 67 62 65 85 86 87 87 88 89 89 89 87 85 88 84 88 84 85 86 84 81 81 83 81 81 79 77 74 61 56 55
85 80 68 58 57 61 58 61 59 79 83 82 83 85 88 90 88 85 85 84 83 84 85 83 84 84 79 78 81 80 80 81 79 76 76 72 69 67
73 80 76 71 68 75 75 68 78 82 82 82 84 86 87 87 86 87 85 86 85 86 86 83 81 78 75 77 82 78 82 80 78 77 76 75 73 70
75 81 82 81 81 80 81 83 83 83 81 82 83 83 84 85 85 86 85 85 82 84 86 83 78 78 80 77 78 79 82 79 78 76 73 75 73 70
72 79 80 82 80 77 77 78 80 77 83 84 84 83 83 84 84 85 84 83 82 84 85 87 79 78 77 76 71 82 80 79 76 72 71 73 75 71
76 79 78 78 77 77 78 81 80 80 80 83 84 84 83 84 81 82 83 83 82 84 85 85 80 79 76 77 76 57 80 79 75 72 72 73 73 69
77 76 76 76 79 80 81 81 84 79 78 81 83 84 84 83 81 81 82 82 83 83 84 84 80 78 78 81 81 79 52 78 77 76 72 70 66 56
70 76 79 81 78 79 82 83 82 80 76 77 81 82 83 83 81 83 82 65 71 78 75 76 80 70 82 77 75 74 72 52 62 76 73 73 67 65
82 79 79 82 79 77 77 77 78 78 75 75 76 76 77 78 76 76 75 74 72 73 72 76 75 74 72 74 73 75 74 70 55 53 56 63 72 70
81 82 82 81 80 78 77 76 76 77 76 74 75 76 75 74 74 75 73 71 71 70 71 71 69 68 67 68 67 72 68 67 69 67 69 56 56 56

GFSNE_sfc_temp_078.txt.gz
Temp
90 88 90 96 95 97 95 94 90 88 92 93 96 99 99 101 92 97 97 80 76 74 72 70 70 72 72 73 72 72 72 72 72 71 71 71 72 72
92 89 88 94 94 95 95 95 93 90 87 96 97 96 95 97 95 96 96 81 80 76 72 70 70 71 71 71 71 70 70 70 69 69 69 68 68 68
89 88 87 89 92 95 95 94 93 93 88 94 96 97 91 91 93 94 97 97 101 76 74 71 71 70 70 70 69 68 67 67 66 66 66 65 65 65
88 88 88 92 87 88 92 89 92 91 90 84 91 93 92 92 92 91 96 101 99 82 76 73 71 69 67 66 65 64 63 63 63 62 62 63 64 64
89 88 88 88 86 90 90 92 93 92 92 90 90 95 95 95 93 93 93 95 101 84 77 73 71 67 65 64 62 60 59 59 60 59 60 61 62 63
90 90 90 89 88 87 88 88 89 89 90 90 91 93 94 95 94 94 94 98 97 100 91 84 72 68 65 63 63 62 59 59 59 58 58 57 57 58
90 90 90 87 80 82 91 89 88 88 91 91 91 92 93 94 90 94 93 95 95 98 97 97 100 94 77 66 68 64 62 60 59 58 57 57 57 57
89 90 90 81 80 72 71 72 78 85 84 88 90 89 87 89 93 92 92 90 87 99 94 94 99 98 101 97 66 63 62 60 59 58 58 56 56 56
89 90 92 97 84 90 73 69 69 68 70 84 83 85 85 87 87 85 87 87 87 93 92 91 96 96 100 78 63 63 61 60 59 58 57 56 55 54
91 91 89 90 92 90 90 90 89 88 84 85 84 86 88 89 88 89 87 85 89 93 94 89 96 94 98 86 63 63 62 60 59 58 57 55 53 51
89 91 91 90 79 69 88 88 89 90 82 71 72 71 68 66 73 89 89 89 90 93 98 95 95 94 97 96 77 63 61 60 59 57 57 55 53 52
88 88 73 83 71 66 84 86 85 88 91 92 89 79 71 80 66 80 88 87 90 90 97 92 93 94 90 97 93 76 77 59 57 58 56 54 53 79
91 92 93 68 64 61 63 87 84 88 86 90 92 93 94 94 94 87 87 89 90 92 96 94 93 93 92 90 91 86 90 75 82 69 54 54 54 58
89 94 92 66 60 60 64 69 63 66 90 92 93 93 94 96 98 97 92 90 93 89 92 90 90 92 91 90 90 85 86 88 86 86 84 61 55 54
89 84 67 59 56 61 58 61 60 82 85 87 88 91 94 97 95 93 93 91 89 88 90 87 88 89 90 89 89 89 87 90 86 84 85 83 81 80
72 80 79 72 65 74 78 71 80 85 86 88 89 92 94 94 94 95 93 93 91 91 90 88 87 86 87 89 88 87 90 86 87 85 84 82 81 81
75 85 85 86 86 87 87 88 89 87 84 87 89 90 91 92 91 93 93 92 89 90 92 94 87 85 82 84 84 88 88 89 89 86 77 82 82 81
73 83 85 87 88 89 88 89 89 85 90 89 89 90 90 90 90 91 92 90 88 89 90 93 92 85 81 81 76 87 87 88 89 82 79 80 83 79
78 79 83 87 88 87 84 85 87 89 87 88 90 90 90 91 88 89 90 90 88 89 90 93 92 85 81 81 90 67 86 89 87 82 81 81 82 81
75 79 83 86 85 83 82 86 87 87 86 85 84 86 90 90 90 89 89 88 88 89 90 91 91 90 83 84 88 89 56 86 86 82 81 81 70 55
74 79 84 85 84 83 84 86 86 87 87 86 87 87 87 89 88 89 90 72 77 88 87 87 91 72 86 86 81 85 82 54 64 82 81 78 75 74
79 81 82 85 86 83 83 84 81 80 86 86 84 83 84 81 85 87 88 88 84 82 86 85 85 81 75 78 79 81 77 70 60 57 56 61 76 73
76 80 81 82 83 84 82 81 79 81 81 80 81 82 80 77 78 78 77 78 77 77 79 78 75 73 71 72 71 73 72 68 71 73 74 56 56 57

GFSNE_sfc_temp_081.txt.gz
Temp
90 88 90 94 98 98 96 95 90 82 90 92 96 99 100 100 92 97 97 82 79 76 73 73 72 72 73 73 73 73 72 72 71 71 70 70 70 71
92 88 88 93 97 96 96 96 95 91 87 96 98 98 97 97 95 96 95 83 83 77 73 74 73 72 72 72 71 71 70 70 69 68 68 67 67 68
88 90 89 89 92 96 97 96 94 94 89 93 97 97 93 93 94 94 95 96 98 76 73 74 73 71 71 71 69 69 68 67 66 66 66 66 66 66
89 89 89 92 87 88 91 90 91 90 90 84 89 92 91 95 93 92 95 100 100 82 77 73 73 70 68 68 67 66 65 64 63 63 63 63 64 64
90 90 89 89 88 90 90 91 93 92 91 89 89 94 95 97 94 93 93 94 101 82 81 73 72 68 66 65 63 62 61 60 61 60 60 59 59 60
91 91 91 90 89 87 88 88 89 88 89 90 90 92 94 95 96 93 94 98 98 101 94 86 79 68 66 63 63 62 60 60 60 59 58 58 60 60
91 92 92 89 81 83 90 87 87 88 90 90 90 92 93 93 90 93 92 95 94 98 99 98 99 84 75 65 70 66 63 62 60 59 58 57 56 57
89 90 91 82 81 73 73 73 77 84 85 87 88 87 86 89 93 92 91 89 86 98 93 93 98 97 98 84 73 65 63 62 61 59 59 57 56 56
89 88 92 97 84 91 74 72 72 70 70 82 83 84 84 87 87 85 85 86 86 92 90 90 97 95 99 82 64 63 62 61 61 59 58 57 56 54
90 91 90 90 91 90 91 90 87 87 84 84 83 84 86 88 87 88 86 85 88 91 90 88 97 96 99 88 64 63 62 61 61 59 58 56 54 52
89 90 90 90 80 72 88 88 88 90 81 73 74 74 73 72 75 88 87 88 88 92 97 95 96 95 97 94 75 62 61 60 60 60 58 57 54 53
88 87 74 82 72 67 85 86 84 87 90 91 86 78 72 79 67 79 86 84 86 88 95 93 94 94 90 97 84 74 71 58 57 59 57 56 55 79
91 93 94 69 66 64 63 86 84 86 85 89 91 93 93 93 92 88 86 87 87 88 94 93 93 94 93 91 96 82 82 72 74 67 54 54 55 59
88 94 93 67 62 62 66 71 66 67 89 89 90 92 93 95 98 97 90 88 91 87 90 88 88 90 89 89 89 96 92 86 85 85 76 63 54 55
88 83 63 60 57 60 58 61 60 82 85 86 86 88 92 96 93 92 92 90 88 89 92 88 88 87 88 88 88 91 89 88 83 86 86 84 82 78
68 80 78 71 61 68 76 71 80 86 86 86 87 90 93 94 94 96 94 95 94 93 90 88 87 86 85 88 89 89 92 88 88 84 85 85 82 81
59 74 84 86 85 87 89 89 90 87 84 86 87 89 91 92 92 94 93 93 91 90 91 95 87 87 88 85 86 88 89 89 90 80 82 82 84 82
61 71 75 79 87 89 89 90 90 85 90 89 88 88 89 90 91 93 93 92 89 90 91 93 92 86 86 84 78 84 87 89 91 79 83 82 83 82
64 69 74 77 79 80 86 86 86 89 88 88 86 90 89 91 89 90 91 91 89 90 90 92 91 89 83 81 89 72 84 87 87 77 83 82 81 84
68 68 74 78 77 78 89 87 85 88 90 91 90 91 91 86 86 90 91 89 89 89 90 91 90 86 82 86 87 91 64 86 87 85 81 84 68 57
75 72 79 81 81 79 79 83 87 88 88 84 89 87 84 86 86 85 90 73 79 89 87 88 91 73 85 84 81 87 88 58 67 80 79 80 77 74
76 78 76 74 81 79 78 78 80 82 83 80 81 82 81 79 80 82 82 81 86 88 87 87 88 85 82 79 81 82 81 76 59 60 59 65 77 73
75 79 81 77 76 80 79 77 79 79 84 85 82 81 81 80 79 81 81 81 80 79 81 81 81 81 79 80 75 80 78 73 67 67 64 56 57 56

GFSNE_sfc_temp_084.txt.gz
Temp
83 82 82 82 83 85 84 83 79 75 76 83 82 89 88 88 85 87 87 80 77 76 75 75 72 72 73 73 73 73 72 72 71 70 69 69 69 70
84 82 82 82 83 84 85 83 83 80 76 82 84 86 87 90 89 87 87 81 81 78 75 75 72 73 73 73 72 72 71 70 69 68 68 67 67 68
82 82 81 82 82 83 82 82 82 82 77 80 83 84 83 84 86 86 86 86 86 76 77 74 72 72 72 72 71 70 69 68 67 66 66 65 65 66
82 82 82 87 82 82 82 80 82 82 80 76 79 80 81 82 85 84 88 94 88 82 76 73 72 70 69 69 68 67 66 65 64 63 63 62 61 62
84 82 82 83 82 81 81 81 81 83 81 79 78 81 81 83 82 84 84 84 91 86 76 72 73 69 67 65 65 64 62 62 61 61 60 60 62 62
84 84 84 83 82 81 82 80 82 81 80 79 78 79 80 83 83 81 81 82 82 93 89 80 75 69 66 64 64 63 60 60 60 60 59 59 59 60
84 83 86 84 80 80 84 81 80 80 80 79 78 79 79 79 79 81 78 80 80 81 82 82 79 72 68 65 69 67 63 62 61 60 58 57 57 57
82 84 85 81 78 73 73 74 76 79 78 79 79 77 76 78 79 78 77 76 74 82 80 81 81 84 80 73 70 67 63 62 61 60 59 57 57 57
82 83 85 91 80 85 74 72 73 70 72 77 75 77 77 78 79 78 78 77 78 81 80 79 82 81 82 82 70 65 62 61 61 60 60 58 56 55
84 83 83 83 84 83 83 82 81 81 79 77 76 78 79 80 80 80 78 78 81 83 82 77 83 82 82 73 65 64 61 61 61 60 59 57 54 53
83 84 84 83 77 72 81 81 82 83 78 71 72 72 71 71 74 78 77 76 76 79 80 78 79 79 81 72 66 63 61 59 59 60 59 58 55 53
82 82 73 77 70 68 77 81 79 81 83 84 81 73 69 73 68 75 79 77 77 76 81 78 78 78 76 80 73 65 63 58 57 58 58 57 54 63
83 84 86 69 66 64 63 81 80 82 81 81 84 85 85 84 82 79 80 80 78 78 82 79 78 78 77 76 77 71 69 66 63 60 55 55 54 55
77 82 82 61 58 58 63 68 66 67 83 83 83 82 83 84 86 86 83 82 84 82 84 81 78 78 75 76 77 76 74 73 70 70 65 60 54 55
70 69 61 60 58 61 59 60 59 74 79 79 79 81 82 84 84 82 82 81 81 82 84 81 83 81 79 77 77 77 76 74 75 76 70 67 64 64
64 64 64 61 61 66 68 76 70 76 78 79 80 82 83 82 83 84 83 84 83 81 83 83 82 81 80 80 79 78 79 76 77 77 76 75 73 72
58 63 67 74 77 79 81 81 81 78 78 80 81 81 81 82 82 83 83 82 79 78 80 81 82 82 82 80 77 79 77 77 79 77 75 73 73 72
59 63 64 67 71 72 73 75 77 78 82 81 79 78 77 80 81 82 82 82 80 80 81 81 80 77 77 79 77 79 78 79 80 76 76 75 72 73
57 63 65 66 69 71 71 71 71 77 79 79 77 78 81 81 79 81 81 82 81 81 81 80 79 77 75 75 79 70 78 79 79 75 75 75 73 73
64 68 69 70 72 74 74 72 73 77 75 76 76 79 78 76 76 77 78 79 78 80 80 80 79 79 78 78 79 80 61 81 75 74 73 71 58 59
73 73 75 75 74 74 74 74 76 74 68 72 75 78 78 78 77 77 78 64 67 75 74 75 79 75 81 80 74 75 77 59 64 75 74 73 65 65
74 74 75 76 74 73 72 73 73 75 75 75 75 75 76 77 77 77 76 75 75 75 75 77 79 78 76 72 73 73 77 67 61 60 60 65 70 67
71 73 73 74 72 70 70 71 72 73 74 74 74 75 74 74 76 76 76 76 75 75 75 74 73 75 75 74 70 74 75 75 68 65 65 58 59 56

GFSNE_sfc_temp_087.txt.gz
Temp
76 75 74 75 75 76 80 75 74 69 70 75 82 81 81 81 83 82 82 80 76 76 77 74 73 73 73 74 73 73 72 71 70 69 69 69 69 69
77 75 75 75 76 76 76 75 74 73 70 73 79 79 82 85 84 82 83 78 78 77 75 75 73 72 72 73 72 71 70 70 69 68 67 67 67 67
75 75 75 75 76 75 75 75 75 74 71 75 77 78 78 78 80 80 82 82 82 77 74 73 73 71 70 71 71 70 69 68 67 66 65 64 63 64
76 75 76 81 76 75 75 75 74 73 73 71 73 75 76 79 79 79 84 88 83 84 73 72 73 69 68 68 68 68 66 66 65 64 63 63 63 63
76 75 76 76 75 74 74 75 75 77 74 72 72 74 76 78 77 79 79 80 84 83 78 72 71 69 67 66 65 64 62 62 62 61 61 61 61 63
77 77 77 77 76 76 76 74 74 73 73 72 72 73 73 78 76 75 76 76 78 86 81 77 73 70 67 65 64 63 60 59 60 60 60 59 59 60
77 78 79 78 77 76 78 75 74 72 72 71 71 71 72 73 73 74 73 73 74 75 75 76 75 71 68 65 67 66 62 60 60 59 59 58 57 58
77 76 78 78 76 73 71 73 76 73 72 71 71 71 71 71 72 72 72 70 69 75 74 80 77 80 76 69 68 66 63 61 61 60 59 58 58 57
75 76 78 86 77 79 73 71 70 70 72 74 71 71 70 73 72 72 71 71 71 77 73 76 77 76 84 76 67 65 63 61 61 60 59 58 57 56
77 76 77 80 78 78 77 76 75 78 75 73 74 78 77 79 74 78 75 72 74 76 75 73 80 76 83 75 66 65 63 61 60 59 58 57 55 54
77 77 77 76 73 69 76 75 76 76 75 69 70 70 70 70 72 72 70 69 72 76 72 72 79 71 75 72 69 63 62 59 59 59 58 57 55 52
76 76 68 75 69 65 74 77 78 80 78 79 76 69 68 72 67 71 77 71 72 73 77 72 73 71 70 73 66 62 60 58 57 57 57 57 55 59
73 74 79 62 57 57 57 74 79 78 80 78 80 81 81 78 75 74 75 77 75 75 79 75 71 71 71 71 70 64 62 61 61 58 55 54 54 54
67 69 69 58 57 55 59 61 60 63 74 78 79 80 80 81 82 79 79 78 81 81 85 76 74 75 70 69 69 70 66 65 62 63 62 57 54 54
66 64 59 56 55 61 58 59 59 64 67 71 74 78 81 83 83 79 78 76 79 80 81 80 80 81 72 76 70 70 70 70 67 66 63 62 61 58
64 64 62 59 59 62 62 67 70 74 74 73 74 78 80 79 78 80 79 80 79 80 79 80 79 78 77 74 76 75 71 71 70 69 70 65 63 62
55 60 62 65 68 71 74 74 74 71 70 73 75 76 77 78 79 81 79 79 76 77 77 73 77 79 80 79 71 73 72 71 72 72 70 68 68 68
55 57 60 61 63 65 67 70 72 71 73 73 73 71 72 71 74 75 76 78 76 77 77 77 73 72 73 74 75 77 72 73 74 71 71 70 69 69
52 56 58 61 62 64 65 68 69 71 71 71 72 72 72 72 70 71 71 71 75 74 75 78 76 75 72 72 73 67 76 76 75 70 70 69 70 71
52 58 61 64 65 67 67 67 70 71 68 69 69 68 68 69 68 69 72 70 69 71 71 73 75 75 75 75 75 74 61 75 72 71 70 65 59 59
62 64 67 68 68 67 68 69 70 71 70 70 69 68 67 66 66 66 69 65 66 71 71 72 74 68 76 75 70 70 72 57 64 72 71 68 62 61
61 62 64 66 67 65 66 67 68 68 69 69 70 69 66 66 67 68 72 72 70 70 72 74 72 72 70 69 71 70 69 65 60 59 59 63 66 63
59 61 61 62 63 62 62 61 61 61 62 64 66 66 69 70 71 71 71 72 72 72 70 70 69 69 70 69 68 69 70 68 64 62 62 58 58 57

GFSNE_sfc_temp_090.txt.gz
Temp
73 72 71 72 72 73 73 72 70 67 69 74 76 78 79 79 80 80 80 77 75 73 72 72 71 72 73 73 73 73 73 71 70 69 69 69 69 69
74 73 72 72 73 73 73 72 71 70 68 70 76 79 79 82 81 80 80 76 75 74 73 72 70 71 71 72 72 71 71 71 69 68 67 66 66 67
73 73 73 73 72 73 73 72 72 71 69 72 74 77 76 76 78 78 79 80 80 75 73 72 70 69 70 70 70 70 70 69 68 67 66 65 64 64
73 73 73 77 73 73 72 72 72 71 71 69 70 73 74 77 75 76 81 84 80 79 74 72 69 69 68 67 67 66 66 66 66 65 64 64 64 63
74 73 74 73 72 71 72 72 71 73 71 70 70 71 73 74 76 76 77 77 81 80 77 74 71 68 66 65 64 63 62 61 62 62 62 62 62 63
75 75 75 75 73 74 73 73 72 71 70 69 69 69 70 73 73 72 73 73 74 83 77 73 72 71 67 65 64 64 61 59 58 60 60 60 60 61
75 75 76 76 74 73 76 73 72 71 70 69 69 69 70 70 70 72 70 70 70 70 72 72 74 74 73 67 68 67 63 61 59 58 58 58 57 58
74 75 76 75 74 71 70 70 72 72 70 70 69 69 69 69 70 70 69 68 68 71 71 76 73 77 76 73 70 67 63 62 60 59 58 57 57 57
73 74 76 82 75 77 73 69 68 68 71 73 71 70 70 70 70 69 68 68 68 74 71 75 73 75 81 79 68 66 63 61 60 59 58 58 56 55
74 74 74 75 75 76 75 75 75 74 72 72 74 78 75 77 73 77 72 70 71 71 72 70 75 74 79 75 70 65 62 61 59 59 58 57 55 53
73 74 75 75 70 66 72 73 73 75 73 66 68 68 67 66 68 70 69 68 72 73 70 70 77 70 70 72 72 64 61 59 58 58 58 56 54 53
72 73 66 70 64 59 69 74 74 77 78 75 74 68 65 69 65 71 75 70 70 70 74 69 68 69 69 72 69 65 62 57 56 56 57 56 54 57
68 70 70 59 55 55 55 64 68 71 71 73 75 76 76 75 74 71 73 75 73 73 77 73 69 67 69 69 70 67 63 61 59 56 53 53 53 55
64 65 66 58 53 53 57 60 58 60 65 68 70 73 76 78 80 77 75 75 79 79 82 73 71 73 67 66 70 70 66 64 62 61 61 56 52 53
64 64 57 54 54 57 59 58 58 63 64 64 68 71 75 79 80 78 75 77 77 77 79 78 76 78 73 75 73 68 69 70 64 64 61 61 62 59
61 60 61 58 57 58 59 65 66 67 68 70 72 75 77 75 76 79 77 78 76 76 77 78 77 76 75 76 75 75 70 70 69 66 65 63 61 62
48 54 56 60 62 63 65 67 69 71 70 70 69 70 69 70 75 72 74 75 73 74 75 76 73 76 76 76 70 72 74 70 73 71 66 65 64 65
50 52 54 55 57 60 61 62 64 66 69 71 70 69 69 70 70 70 70 71 72 73 74 76 72 69 71 73 73 75 71 73 72 71 69 69 69 67
48 51 52 55 57 59 61 62 63 65 68 68 69 69 69 70 69 70 70 71 70 70 71 72 69 68 68 69 73 66 75 75 73 69 71 70 72 71
49 52 55 58 60 62 63 64 65 66 68 69 68 68 68 68 67 67 67 66 66 66 67 68 69 70 69 71 73 76 59 75 71 71 70 67 62 57
54 56 58 59 60 58 59 60 63 65 64 66 66 67 68 68 67 66 66 59 60 65 66 68 71 66 71 70 68 69 70 56 63 72 70 68 64 61
52 54 56 56 57 57 59 59 60 59 59 59 60 61 63 64 65 66 65 65 66 68 68 70 71 70 67 68 70 70 67 66 61 59 61 62 66 64
49 51 52 53 55 54 56 55 55 55 55 54 55 56 56 56 58 61 64 67 69 69 68 69 70 68 68 68 65 68 68 68 65 64 66 59 60 57

GFSNE_sfc_temp_093.txt.gz
Temp
71 71 70 71 71 71 71 70 69 66 67 73 73 77 74 73 76 78 78 76 74 72 71 71 71 71 72 73 73 73 73 72 71 70 70 70 70 69
72 72 71 71 71 71 71 70 70 68 67 69 74 75 76 79 79 78 78 75 74 72 71 72 71 70 71 71 71 71 72 71 70 69 68 67 67 66
71 71 71 71 71 71 71 70 70 70 68 70 71 74 75 75 77 77 78 78 78 74 73 71 70 69 70 70 70 69 70 70 69 68 67 66 66 65
73 71 71 75 71 71 71 70 70 70 70 68 69 71 73 75 75 75 78 82 78 78 73 70 69 69 67 67 67 66 66 66 67 66 66 65 64 64
73 72 72 71 71 70 70 70 70 72 70 69 68 69 70 71 73 74 75 75 79 78 75 73 71 70 68 65 64 63 61 61 62 63 63 63 63 63
73 73 73 73 71 71 71 71 71 69 69 68 67 68 68 71 70 70 71 71 73 80 75 73 70 71 70 67 65 64 61 59 58 59 60 60 61 62
73 73 74 74 72 71 72 72 71 70 69 68 68 67 68 68 68 69 68 69 69 69 70 71 72 72 75 70 70 69 65 62 59 58 58 58 58 59
72 73 73 73 72 70 69 69 71 71 70 68 68 68 69 68 68 69 68 66 65 69 70 73 71 74 73 73 71 68 66 63 60 59 58 57 57 57
72 72 74 79 73 75 71 67 68 67 69 72 70 70 69 69 69 68 67 66 66 71 70 73 71 71 74 75 70 68 64 62 60 59 59 57 57 56
71 72 72 73 73 73 73 72 73 73 71 71 71 75 74 76 72 75 71 68 68 69 70 68 71 73 73 74 69 66 63 61 59 59 58 57 55 54
70 71 71 71 67 62 69 70 72 73 73 65 66 66 66 65 68 68 68 67 70 73 70 69 73 68 68 71 72 64 61 59 58 58 58 57 54 53
68 69 61 62 58 56 64 65 66 70 71 71 72 71 64 68 64 69 73 68 70 68 72 69 67 68 68 70 69 70 68 59 56 55 56 56 54 57
63 65 66 60 59 57 55 61 65 67 68 69 70 72 73 72 73 69 71 72 71 71 75 72 68 66 67 68 68 69 68 64 61 58 53 53 53 56
61 62 62 55 53 53 55 57 55 57 64 65 68 69 71 73 76 76 74 73 76 76 81 72 69 70 66 65 68 70 68 66 63 63 61 56 52 53
60 59 57 55 55 58 59 58 57 62 62 64 66 68 72 74 75 74 76 74 74 75 77 77 73 76 74 72 72 70 67 69 65 65 63 61 60 57
55 53 56 56 56 57 58 61 62 64 65 66 69 70 73 73 72 69 73 70 71 73 74 76 76 74 72 74 73 71 73 67 68 66 66 63 62 62
45 51 53 55 58 60 60 60 62 62 62 64 67 68 68 69 70 70 70 71 69 71 73 72 71 73 74 73 70 70 71 70 71 71 65 66 64 64
49 49 51 51 52 54 57 59 61 62 63 65 66 67 68 69 69 70 69 69 68 70 72 73 70 67 68 70 71 72 70 70 71 71 68 68 70 66
48 49 49 51 53 54 56 58 60 63 64 65 66 67 68 68 67 68 69 70 69 70 72 70 68 67 66 65 70 66 73 73 71 68 71 70 71 70
46 49 50 53 54 55 55 55 56 59 61 61 62 63 63 63 65 67 68 67 67 67 66 67 66 67 66 67 69 73 58 74 70 71 69 69 65 58
46 47 49 51 52 53 53 53 53 56 57 57 59 58 57 57 58 59 59 57 59 65 64 66 68 65 69 69 68 69 71 56 67 72 70 68 65 64
44 44 46 47 48 49 48 50 52 54 55 55 56 56 55 55 55 55 55 55 58 61 64 67 69 69 68 68 67 69 68 67 59 57 60 64 66 64
41 43 44 45 46 46 46 46 49 51 53 53 52 53 52 51 52 54 54 54 55 55 58 61 66 68 68 68 66 67 66 67 66 64 65 59 58 57

GFSNE_sfc_temp_096.txt.gz
Temp
76 75 75 76 76 77 76 76 75 73 73 77 79 83 80 81 81 84 83 75 73 72 71 71 71 71 72 73 74 74 74 73 73 72 70 70 69 69
76 75 75 76 77 77 77 76 75 75 74 75 80 81 82 85 84 83 84 77 74 72 71 70 70 71 71 71 71 72 72 72 71 71 70 68 67 67
76 75 76 76 76 76 77 76 76 75 75 77 77 80 79 80 82 83 83 84 84 74 72 70 70 70 70 70 69 69 70 70 70 70 69 68 67 66
76 75 74 78 76 75 76 75 75 76 75 73 75 77 78 80 79 78 83 87 84 80 72 70 71 70 69 68 66 66 66 66 68 67 67 67 66 65
74 75 74 75 75 76 75 76 76 77 75 74 75 76 77 78 79 80 80 80 84 78 74 72 71 70 68 67 66 63 61 61 63 64 64 65 65 65
75 75 75 75 74 75 75 74 76 75 74 74 74 74 75 78 77 76 78 80 80 85 79 74 71 71 69 66 66 66 62 59 58 60 60 61 62 63
77 76 77 75 72 72 76 76 75 75 75 74 73 73 75 76 76 78 75 77 79 78 79 81 81 82 82 75 74 70 66 62 59 58 58 58 59 60
76 77 77 74 74 69 68 68 72 75 75 74 75 74 75 75 76 76 75 75 74 79 77 79 81 81 83 84 73 68 65 63 60 59 58 57 57 58
75 75 77 81 75 77 71 68 68 66 69 77 75 76 75 78 76 75 75 74 75 80 77 78 82 81 83 87 70 67 64 63 61 59 58 57 57 56
73 73 73 74 69 69 73 76 77 78 77 75 74 77 78 78 77 78 76 74 75 78 77 73 82 80 83 83 70 66 65 63 61 58 57 56 55 54
71 69 69 66 61 60 70 70 71 74 73 66 64 64 64 63 67 75 75 73 75 79 78 77 80 79 80 81 82 66 63 61 59 58 58 56 54 53
68 68 62 62 59 59 64 64 66 70 72 73 74 73 70 73 65 71 76 74 76 75 80 76 79 78 78 81 81 83 83 65 59 56 56 56 53 69
64 64 66 56 55 55 54 63 65 66 66 68 71 73 75 77 78 77 75 76 76 76 80 79 79 78 76 77 80 82 82 81 78 73 53 53 52 60
61 61 62 54 52 52 57 57 54 56 65 67 70 72 73 75 77 79 78 76 78 77 81 78 78 78 77 76 75 82 82 81 79 78 78 63 52 53
58 56 54 53 54 59 59 57 58 65 66 68 68 69 72 75 76 76 77 77 77 77 79 76 77 77 77 75 75 78 76 80 81 78 78 76 75 70
54 56 57 57 55 58 62 64 66 66 66 67 68 70 73 73 73 73 74 74 75 77 80 78 77 76 76 77 75 75 79 75 80 80 78 78 76 74
48 56 57 59 60 61 62 64 65 66 65 66 65 65 66 68 70 72 73 72 70 72 75 79 79 77 78 74 71 76 77 77 80 79 76 76 79 78
52 51 53 54 56 58 59 60 62 62 64 64 65 65 65 65 63 66 68 68 68 69 70 72 73 73 74 76 72 76 77 77 79 77 77 74 77 81
49 50 49 51 53 55 56 57 56 59 58 59 62 61 60 60 59 60 61 61 61 64 69 70 70 69 68 68 77 64 76 78 79 75 76 74 77 81
48 48 49 50 50 50 51 53 53 54 54 56 58 59 60 59 59 58 57 57 58 59 63 67 67 66 65 66 68 74 58 75 75 75 75 77 78 62
46 46 48 48 48 49 49 50 50 50 51 55 57 57 58 57 56 56 56 53 53 57 57 62 67 61 70 68 65 69 76 56 67 74 74 74 74 76
43 43 44 45 46 47 48 48 47 48 49 51 52 54 54 53 52 54 54 54 54 55 56 59 63 63 63 63 63 67 69 75 67 57 58 63 71 66
43 43 42 43 44 45 46 46 47 47 47 47 48 49 52 51 51 52 51 51 51 52 54 54 58 60 60 62 61 63 67 71 71 70 69 58 59 60

GFSNE_sfc_temp_099.txt.gz
Temp
85 84 86 89 89 89 88 88 85 83 86 90 91 93 95 96 90 93 93 75 74 73 71 71 72 73 73 74 75 75 75 75 74 73 72 72 71 70
87 83 84 88 88 89 88 88 87 85 83 91 92 91 92 94 93 92 93 77 77 73 71 71 71 72 73 72 72 72 72 73 72 72 71 70 69 68
83 83 83 84 88 88 88 87 86 86 83 89 89 90 86 88 90 91 93 93 95 77 73 71 70 71 71 71 70 69 70 70 71 71 70 69 69 68
83 82 82 86 83 84 86 83 85 85 84 80 86 88 86 87 87 86 91 96 93 83 73 70 70 70 69 69 68 67 66 66 68 68 69 69 68 67
84 82 84 82 81 85 84 81 87 86 85 83 84 88 87 89 87 89 88 88 95 81 77 75 72 70 69 67 66 64 63 62 62 64 65 66 66 67
85 85 84 83 82 82 84 82 85 82 84 84 86 86 87 88 87 87 88 92 91 94 86 79 73 74 71 68 67 66 63 61 59 60 61 62 64 65
85 85 86 81 74 75 80 81 83 82 81 84 85 86 86 87 85 88 87 89 90 92 89 92 94 93 93 81 80 72 67 64 60 58 58 59 59 61
83 84 86 77 78 67 67 68 72 78 79 82 84 84 81 84 87 86 85 84 82 93 86 87 93 92 94 96 74 69 65 64 62 59 58 58 58 58
81 81 82 85 76 80 76 69 69 66 68 78 79 82 81 84 83 81 82 83 83 88 86 85 91 90 94 97 74 68 65 64 63 60 59 58 57 57
74 73 72 68 67 69 77 81 83 83 83 85 82 82 83 84 82 83 81 80 84 88 88 82 91 89 93 93 75 68 67 65 63 60 58 57 55 55
70 68 69 68 61 61 71 73 76 80 75 67 65 64 64 63 67 80 82 81 83 87 91 86 88 88 90 91 92 71 66 63 61 60 59 57 54 54
71 70 59 63 56 56 70 72 73 75 76 77 79 78 75 79 65 77 82 80 81 80 89 84 87 88 84 93 93 93 93 66 60 58 58 56 53 75
68 72 70 56 54 53 53 72 69 66 72 77 80 83 84 85 87 86 84 81 81 83 86 84 82 83 82 82 88 91 91 90 91 85 57 54 52 64
62 64 63 53 52 53 63 55 55 60 79 79 80 80 81 82 84 84 82 82 82 79 82 81 78 79 78 78 80 88 90 91 91 89 89 70 52 53
66 60 55 55 57 64 59 58 61 76 76 76 74 76 76 75 75 77 78 81 82 84 86 83 78 79 78 79 80 83 82 87 90 89 89 88 88 87
58 66 61 59 58 63 69 71 74 73 72 73 73 69 71 73 77 76 72 72 77 81 82 81 82 79 77 82 81 81 84 79 85 88 88 88 89 88
56 64 63 64 67 68 69 70 71 71 70 66 64 67 73 71 70 72 72 68 67 68 74 80 78 79 79 78 76 82 82 83 86 87 85 85 88 89
59 60 58 59 60 59 62 63 65 64 65 65 68 68 69 68 68 71 73 69 65 66 66 72 70 75 79 81 75 80 80 82 85 84 84 81 83 88
57 55 54 55 55 56 57 59 59 61 60 63 63 65 67 68 67 68 69 67 66 68 70 71 73 73 69 68 74 67 73 75 78 80 83 83 80 84
58 57 56 57 57 56 56 56 56 58 57 57 59 61 63 63 62 60 58 58 59 62 64 68 71 71 62 65 67 75 63 75 73 74 78 82 84 70
55 55 55 55 55 55 55 56 56 56 55 56 58 58 59 60 61 62 61 53 53 56 57 61 66 59 67 70 68 71 78 61 66 77 78 76 77 79
54 53 53 53 52 52 52 53 54 55 55 56 55 55 56 57 56 55 56 55 55 54 54 55 58 61 63 64 64 66 70 75 70 65 60 64 72 69
52 52 51 51 51 50 50 51 52 52 52 52 52 53 54 53 51 50 51 52 54 55 57 55 56 56 54 56 58 63 64 68 72 73 77 67 59 58

GFSNE_sfc_temp_102.txt.gz
Temp
90 89 91 96 96 97 95 94 90 87 91 94 95 100 101 101 93 98 97 76 77 75 73 72 72 74 75 75 75 75 76 76 76 75 74 74 74 73
92 89 88 94 94 96 95 95 94 90 87 96 97 96 95 97 95 96 96 83 83 77 74 72 72 73 74 74 73 72 73 73 73 73 73 72 72 71
88 88 87 88 92 95 95 94 93 93 88 93 96 97 91 91 93 94 97 97 100 78 76 73 72 72 72 72 72 71 70 70 71 72 72 71 71 70
87 87 87 91 87 88 92 88 90 90 89 84 90 93 92 92 92 90 96 101 99 83 78 74 73 72 70 69 68 68 67 67 67 69 70 70 70 69
88 87 87 88 86 88 87 90 92 92 91 90 88 94 95 95 93 93 93 94 101 85 79 73 75 73 71 69 67 65 63 63 63 64 66 67 68 68
89 89 89 88 87 86 88 86 88 88 89 89 90 92 94 95 94 94 94 97 96 100 92 84 81 79 74 70 68 68 66 63 60 60 61 63 65 66
88 90 91 85 74 76 84 84 85 86 90 90 89 91 93 89 88 93 92 94 94 97 98 97 100 100 99 78 79 73 69 66 62 59 59 59 61 62
87 88 90 80 79 69 69 68 74 79 82 84 87 87 85 87 92 91 90 89 86 97 93 93 98 97 100 102 75 71 68 66 64 61 58 58 59 59
86 87 88 87 79 84 77 72 70 67 68 80 81 83 83 84 83 82 83 85 86 91 90 91 97 96 100 102 75 70 68 67 65 63 60 58 58 58
76 75 75 75 72 72 82 84 86 86 82 85 84 83 84 83 81 82 81 82 87 93 94 89 96 94 99 100 77 75 70 67 65 63 60 58 56 55
75 76 78 77 59 59 79 79 80 83 78 68 68 66 65 64 69 83 85 79 84 89 95 87 90 92 96 97 99 71 70 65 63 62 61 58 55 54
78 75 59 63 56 56 76 78 77 78 79 81 84 81 74 82 66 81 85 75 75 80 90 81 81 86 85 93 96 97 98 66 61 60 60 59 55 78
79 79 76 57 54 54 55 74 72 70 77 84 87 89 89 90 91 89 86 85 83 84 86 84 80 83 78 84 92 95 96 95 96 89 58 56 54 64
65 66 68 54 53 56 66 57 57 61 85 85 85 84 84 84 85 85 83 83 84 82 86 84 82 78 75 79 83 90 93 95 95 94 95 67 54 54
63 57 56 55 56 60 60 60 61 80 80 81 81 81 78 81 80 83 81 81 83 84 88 83 82 76 75 74 78 84 81 89 91 92 92 92 86 82
64 72 65 61 59 65 73 74 78 76 76 76 75 76 80 82 81 82 80 82 80 82 84 82 77 77 79 81 79 80 83 77 82 88 82 88 92 92
57 70 70 69 69 71 73 72 73 72 72 72 73 74 76 77 77 79 77 79 77 77 79 83 82 80 81 79 80 84 84 82 85 82 82 84 89 92
66 67 62 64 63 65 62 63 66 66 67 68 69 70 72 73 73 74 76 75 73 73 74 76 77 77 79 82 76 83 82 83 85 84 83 83 85 90
69 68 67 65 64 65 66 65 63 62 60 62 64 66 67 68 68 70 70 70 69 69 70 70 71 72 71 71 79 67 76 77 78 80 83 84 82 85
68 65 65 65 64 64 64 64 65 65 64 64 64 63 62 62 62 64 66 65 66 65 65 67 68 68 65 59 63 71 61 73 76 77 79 82 83 71
65 64 63 63 62 62 62 62 61 62 61 62 64 63 63 63 62 63 62 55 56 62 62 63 67 60 67 68 65 68 74 62 64 72 73 74 74 77
63 63 62 61 60 59 59 59 60 61 60 60 60 60 60 60 60 60 61 60 60 60 60 62 63 65 63 61 60 62 65 69 67 64 63 64 72 70
61 61 61 60 60 59 58 57 58 57 58 57 57 56 56 55 56 57 57 57 57 57 57 58 61 63 62 62 58 60 60 62 67 68 70 65 64 61

GFSNE_sfc_temp_105.txt.gz
Temp
91 90 90 95 98 98 97 96 91 85 88 87 86 95 95 99 92 97 96 81 80 78 76 74 75 75 76 76 75 75 76 76 76 76 76 76 76 76
93 91 89 93 94 96 97 96 95 91 87 95 96 98 95 97 96 95 95 83 83 80 77 74 75 76 75 74 74 73 72 73 73 74 74 73 73 73
89 89 88 89 91 93 94 95 94 94 89 93 94 95 92 93 94 95 95 95 98 77 76 76 76 76 74 73 72 72 71 71 71 71 72 72 72 72
88 88 88 92 89 89 92 90 91 89 89 84 88 92 91 95 95 92 96 101 99 82 78 76 76 75 73 71 70 70 68 68 68 68 70 71 71 70
90 89 88 88 87 89 87 88 91 91 82 88 87 93 95 94 94 93 93 94 101 83 80 75 76 74 72 71 68 67 66 65 64 64 65 67 69 69
90 85 88 88 88 87 88 86 89 86 88 87 79 88 92 86 90 92 93 97 96 100 94 85 83 78 73 70 70 68 66 64 62 61 61 62 65 67
91 91 90 82 77 76 86 86 85 85 88 86 86 90 86 88 87 92 92 93 92 96 96 97 97 99 99 78 79 74 70 67 63 61 59 59 60 62
86 90 91 86 79 72 71 71 74 81 81 83 84 85 83 85 88 87 86 85 82 94 90 90 97 97 100 101 76 76 69 69 65 62 60 59 59 60
86 86 86 84 82 85 74 71 70 68 69 79 80 80 79 81 81 79 80 79 82 87 86 82 95 94 94 98 71 71 72 72 68 64 61 59 58 58
82 81 81 81 70 71 78 85 86 85 82 84 82 82 82 81 79 82 80 81 84 87 86 74 91 92 94 93 72 71 73 71 67 65 62 59 57 55
78 75 80 76 59 60 78 80 81 83 78 70 71 68 67 65 69 81 84 76 76 83 88 76 85 86 90 93 83 71 69 65 64 65 63 61 57 55
77 72 59 65 57 57 74 77 76 78 79 82 84 81 70 77 67 78 82 78 76 79 85 82 83 80 80 89 91 94 85 65 62 62 62 60 56 77
82 81 76 58 55 55 56 74 71 69 73 81 87 89 88 86 85 84 84 83 81 80 85 83 81 75 74 76 86 91 92 87 82 78 59 57 54 63
71 71 69 55 54 55 63 59 58 61 82 84 85 84 82 81 83 83 80 81 83 80 83 80 76 78 76 78 79 86 85 90 90 87 89 68 55 55
70 63 58 56 56 58 59 62 61 79 78 74 77 78 79 82 82 82 82 80 81 84 87 83 81 78 79 79 79 82 82 87 89 88 88 84 88 88
63 67 66 62 60 65 71 74 76 75 74 73 74 77 78 79 79 80 78 79 79 81 81 80 77 74 77 79 79 79 84 82 87 87 85 87 88 90
58 71 67 67 68 68 67 68 70 70 68 70 70 71 73 74 75 76 75 76 73 73 74 78 74 74 76 73 76 80 81 81 84 82 79 79 83 86
66 71 69 69 68 66 65 64 66 63 62 63 64 66 66 68 68 70 72 72 70 71 71 72 72 71 73 76 72 72 72 73 76 74 74 75 78 85
72 71 70 69 69 69 69 68 66 67 65 67 65 65 67 65 63 63 64 65 65 65 66 69 69 68 63 63 71 64 67 68 69 71 74 76 76 80
72 69 68 68 67 67 66 67 67 67 66 66 65 65 64 63 64 63 64 63 62 60 61 64 64 65 58 58 61 66 60 68 70 67 67 71 72 66
70 68 68 68 66 65 64 64 64 63 63 63 63 63 63 62 61 61 61 55 56 61 60 61 64 59 64 66 63 64 68 60 62 64 65 63 63 66
68 67 66 65 64 63 62 62 63 62 62 62 61 60 59 58 58 58 58 57 58 58 58 60 63 63 62 60 59 60 62 66 65 61 59 59 62 59
65 65 64 64 64 62 61 61 61 61 60 59 57 56 56 54 55 56 56 56 56 56 55 55 58 60 58 58 57 58 57 59 64 64 65 62 60 60

GFSNE_sfc_temp_108.txt.gz
Temp
83 84 82 83 83 85 83 83 79 74 75 74 74 74 85 86 85 87 86 80 78 79 78 76 75 76 76 75 75 74 74 75 75 76 76 76 76 77
84 81 84 83 83 84 83 84 82 78 75 81 82 84 86 91 86 86 87 80 80 78 76 77 77 76 76 75 74 73 72 73 73 73 73 74 74 74
84 82 83 84 82 82 82 82 81 81 76 79 81 83 82 84 87 86 87 85 85 79 79 76 76 77 76 75 73 72 71 71 71 71 72 72 72 72
84 84 83 87 82 83 82 79 79 81 78 75 79 81 80 83 85 84 88 95 87 81 76 76 75 74 74 72 71 70 69 68 68 68 69 71 71 71
85 85 83 84 81 80 81 81 81 82 80 78 77 80 80 81 80 85 83 85 91 85 79 74 74 73 72 71 69 68 67 66 65 65 65 66 68 70
84 84 82 82 82 81 81 79 80 79 79 78 78 79 79 79 73 78 79 81 83 91 87 83 79 77 73 71 68 69 67 65 64 62 61 61 63 66
83 82 84 79 75 74 80 79 78 78 77 78 77 78 78 79 77 80 79 80 81 82 83 85 86 87 89 80 77 74 71 68 65 62 60 60 60 61
80 81 80 79 75 73 72 71 72 76 76 76 77 76 76 77 78 77 76 76 74 81 80 80 84 83 87 84 77 75 72 71 65 64 64 61 59 59
81 81 81 74 70 73 75 72 70 69 68 74 74 74 74 76 75 74 74 74 75 79 76 76 82 80 85 81 75 71 72 68 68 67 65 62 60 58
77 77 74 67 63 66 72 79 79 80 77 79 77 76 76 76 74 75 74 74 77 76 77 72 78 78 81 83 72 70 67 68 68 65 63 60 58 56
68 66 70 67 60 60 74 73 74 74 77 71 71 68 67 66 66 71 74 74 74 76 76 74 77 78 78 79 80 72 67 66 65 62 62 61 56 57
69 65 60 61 58 58 68 70 67 69 68 70 74 75 73 73 65 74 75 72 72 71 75 73 75 73 71 76 80 82 81 70 62 61 61 59 58 67
71 69 66 58 56 56 57 68 66 63 67 70 74 77 78 77 76 74 75 73 71 69 75 74 72 71 70 72 76 78 81 80 81 77 64 61 55 61
67 67 66 56 54 56 60 58 58 61 70 71 71 71 71 73 74 74 74 73 72 72 75 73 71 69 68 69 69 74 77 78 79 79 79 73 62 56
65 61 58 55 56 60 61 60 63 69 68 67 66 67 68 69 70 70 71 69 70 72 76 69 67 65 66 65 66 67 68 72 76 75 72 75 76 77
64 65 63 62 60 63 64 65 65 63 63 63 63 65 66 67 67 67 65 67 65 67 68 68 65 64 64 64 64 65 67 64 70 69 67 69 71 73
52 65 64 64 63 61 61 61 61 60 59 59 59 61 61 62 61 63 63 63 62 62 62 65 64 63 64 62 63 63 62 62 64 63 63 64 67 68
59 65 63 64 63 63 62 62 61 61 60 61 60 60 59 59 58 60 60 59 58 58 57 59 61 60 61 62 64 60 60 60 61 62 62 62 63 66
59 65 64 63 63 63 63 62 61 60 61 61 60 60 59 59 59 58 58 58 56 56 57 60 59 56 51 50 57 60 58 59 61 61 62 60 60 62
65 64 63 62 62 61 61 60 61 59 59 59 59 59 58 57 56 56 56 55 54 54 55 56 56 54 51 51 53 58 57 58 58 57 57 59 61 62
66 64 63 63 61 60 59 59 59 58 58 58 57 57 56 55 54 54 54 52 52 53 52 52 54 57 57 57 53 54 58 57 56 54 55 54 54 55
65 63 62 61 60 60 59 59 59 58 57 57 55 54 53 53 52 52 52 51 51 52 51 53 54 54 51 51 49 50 52 54 56 57 57 55 52 48
62 62 61 61 60 59 58 59 58 58 56 54 53 52 52 51 51 51 51 50 49 48 49 48 49 50 48 48 47 47 47 48 49 48 51 55 56 57

GFSNE_sfc_temp_111.txt.gz
Temp
76 76 75 76 76 77 76 76 75 66 67 66 68 71 70 71 75 81 82 80 77 75 73 75 75 75 74 75 75 75 75 75 75 75 75 76 77 77
76 76 75 75 77 77 79 75 74 72 69 72 71 75 74 82 84 83 84 78 78 76 76 74 76 76 74 74 73 73 72 73 73 73 73 73 73 74
76 76 76 76 75 75 75 75 76 76 70 73 75 78 78 79 81 81 82 82 83 79 77 73 73 73 73 73 73 72 71 71 71 71 71 72 72 72
76 76 76 81 75 74 74 73 74 74 72 69 72 75 76 78 78 77 83 89 82 82 75 73 73 72 71 71 70 70 70 68 68 68 69 70 71 71
78 77 77 76 74 74 74 73 73 73 73 71 70 75 75 74 73 77 78 78 85 82 79 76 74 72 70 70 69 68 67 66 65 65 65 66 68 70
79 78 77 79 74 74 74 73 73 72 72 71 70 70 72 74 72 71 74 78 78 84 81 77 77 76 74 72 69 68 66 65 65 62 62 62 64 66
76 75 76 75 74 73 74 72 72 71 71 70 70 70 69 70 70 71 71 72 77 75 79 79 80 82 82 78 77 70 71 69 66 63 62 60 60 61
73 73 70 68 69 69 70 70 69 70 69 69 69 69 69 70 71 70 70 68 67 75 75 77 77 77 75 79 74 73 72 71 68 65 62 61 61 59
72 71 68 68 65 67 69 71 72 68 68 69 68 69 69 70 68 66 67 67 68 73 72 71 75 74 74 78 75 71 70 65 66 65 63 61 60 59
66 64 62 61 61 63 68 70 70 70 68 71 67 68 69 69 68 68 68 69 71 71 70 67 73 74 77 76 72 71 67 65 64 63 61 60 59 57
61 64 63 61 60 61 67 66 66 67 70 67 66 65 64 63 66 69 69 66 65 68 72 67 69 72 71 73 79 71 69 65 66 64 63 60 59 58
62 61 60 60 57 58 63 62 61 62 62 66 69 73 71 66 68 69 68 64 63 63 69 66 67 67 64 69 73 76 76 68 65 63 64 62 57 67
63 61 60 57 56 56 58 61 60 59 63 65 67 67 69 69 71 72 67 65 62 61 68 66 63 59 61 62 66 70 72 71 73 71 63 61 59 57
64 64 62 55 54 55 58 57 59 62 64 66 64 62 63 64 65 65 64 64 64 64 65 65 58 56 55 55 56 64 67 68 68 66 66 63 62 61
61 60 57 56 56 58 58 58 59 59 57 57 55 57 58 59 61 62 64 64 62 65 66 62 61 58 55 54 55 56 58 62 64 62 62 62 63 65
57 61 59 58 58 57 56 56 56 55 55 55 53 56 57 60 60 59 56 60 57 58 61 61 57 57 54 55 53 54 55 52 59 59 60 62 62 63
49 54 56 55 54 54 54 55 54 54 53 53 54 54 54 57 55 55 55 53 53 52 54 58 56 56 58 53 50 52 54 55 57 58 58 58 60 60
50 53 54 53 53 53 53 53 53 54 53 54 52 52 51 51 52 52 52 51 50 52 52 55 56 53 52 51 60 50 55 55 56 56 56 53 54 57
50 53 54 53 52 52 52 51 50 50 52 52 50 52 51 51 51 50 50 49 49 47 47 49 50 48 45 44 50 56 53 54 54 52 52 51 50 53
50 53 52 52 51 50 50 50 49 50 50 49 49 49 48 48 48 47 46 45 45 46 46 47 47 47 44 44 45 51 53 51 49 47 48 51 52 55
52 52 52 51 50 50 50 49 49 48 48 47 46 45 45 44 44 44 44 46 46 44 43 44 46 52 47 47 43 45 49 52 51 48 48 45 45 46
52 51 50 51 50 49 49 50 49 47 45 45 44 43 43 43 43 43 43 41 41 41 41 42 44 45 42 43 41 43 44 47 51 52 53 52 46 42
53 52 50 50 50 50 49 48 47 47 45 44 43 42 42 41 41 41 41 40 40 40 40 41 42 43 43 42 43 41 43 44 45 44 46 52 53 53

GFSNE_sfc_temp_114.txt.gz
Temp
73 73 71 71 70 70 70 67 65 63 64 68 66 72 72 74 77 76 76 76 74 73 71 70 72 73 74 74 74 74 74 74 75 74 74 75 77 78
75 72 72 72 72 73 74 71 68 68 70 69 70 70 75 78 78 77 78 76 76 75 73 71 72 71 73 73 72 72 72 72 72 72 72 72 73 74
74 74 75 74 72 73 72 72 71 70 68 70 70 75 74 73 76 77 80 81 79 74 71 72 71 71 70 70 71 71 70 70 70 71 71 71 72 72
74 73 74 78 73 72 72 72 71 71 70 68 69 73 72 73 72 75 79 84 79 78 72 72 71 70 70 69 67 67 68 68 68 68 68 70 70 71
74 74 74 73 72 71 72 71 71 71 70 69 69 70 72 72 72 73 74 74 80 78 75 73 71 70 69 68 66 64 64 64 64 65 65 65 67 69
74 74 74 74 73 72 73 71 71 70 70 69 68 68 69 72 71 70 70 72 72 80 78 74 73 73 72 70 69 67 65 63 61 61 61 61 62 64
73 74 71 71 69 69 70 70 70 69 68 68 68 68 68 69 68 69 68 69 70 72 73 74 75 77 77 75 73 69 66 65 63 61 61 60 60 60
70 68 67 68 69 68 67 68 69 69 68 68 68 67 68 68 68 65 66 66 65 74 69 72 74 74 73 78 69 67 66 64 63 63 63 60 60 59
70 67 67 68 66 68 68 68 67 66 66 68 66 66 66 66 65 64 64 65 66 70 68 68 74 70 72 77 67 66 65 64 63 63 62 59 58 60
64 62 61 61 62 67 68 67 66 67 66 68 64 65 66 67 66 67 66 66 68 68 66 63 68 67 71 75 67 67 65 62 62 62 61 59 57 55
61 62 62 61 60 63 66 65 64 64 67 64 64 62 61 62 65 66 65 63 62 64 68 62 65 64 67 69 73 66 64 60 60 60 61 58 57 60
60 59 60 59 57 58 62 61 61 60 61 65 66 67 66 66 65 65 62 61 58 58 64 59 59 58 59 63 63 67 66 61 59 58 58 57 56 66
63 62 61 57 55 55 58 61 62 61 63 61 62 62 63 63 63 62 60 61 57 53 59 58 56 53 53 55 58 63 63 62 62 61 58 56 56 57
59 62 59 54 53 55 58 56 56 58 58 58 57 56 56 57 57 58 60 63 62 58 57 56 53 51 50 50 52 58 59 58 60 59 59 57 57 57
62 59 54 53 53 55 56 56 56 54 52 53 51 51 52 54 56 55 56 56 57 60 61 55 53 51 50 49 48 50 51 53 58 57 57 57 57 58
57 59 57 56 56 56 55 54 54 53 52 51 50 50 52 52 53 52 52 51 51 52 55 59 54 51 47 48 48 48 48 47 53 54 54 54 55 55
50 53 53 52 51 51 51 52 52 51 51 50 50 49 50 53 53 53 51 49 48 46 49 53 52 52 50 49 46 46 50 49 52 51 51 49 51 52
52 52 51 51 51 50 50 49 49 51 49 49 48 48 48 47 47 48 48 45 45 45 47 47 48 46 47 49 55 49 48 49 50 49 48 45 46 50
51 50 50 50 49 49 49 50 47 48 48 48 47 47 48 48 45 45 45 44 44 42 43 44 45 43 40 39 45 53 46 46 46 45 47 46 44 47
48 50 49 48 48 49 49 48 47 47 45 45 45 44 44 44 44 42 42 41 40 40 40 40 41 40 38 37 39 43 50 43 44 43 43 46 48 53
49 49 50 49 47 47 47 46 45 44 43 43 42 41 41 41 40 41 41 43 41 38 38 38 40 49 41 41 39 40 45 49 48 44 45 44 44 45
52 52 51 49 48 47 46 45 44 44 42 41 40 40 40 40 39 39 39 38 38 38 38 39 40 40 40 43 42 44 45 46 50 52 52 50 45 41
50 52 48 47 47 47 45 44 45 45 44 41 40 40 39 38 38 38 38 38 38 38 38 38 41 41 41 40 42 43 45 46 47 46 47 53 53 53

GFSNE_sfc_temp_117.txt.gz
Temp
72 71 70 69 68 68 68 66 65 63 64 67 67 71 74 75 76 75 73 74 73 71 71 71 71 72 73 73 74 74 74 74 74 74 74 75 76 78
72 71 71 71 70 70 70 69 68 67 64 68 70 70 74 77 77 74 78 75 74 71 72 71 70 71 71 71 72 72 72 72 72 72 72 72 73 74
72 71 72 72 71 71 70 70 69 68 65 69 69 72 73 72 74 74 79 77 76 72 72 71 69 69 69 70 69 69 70 70 70 71 71 71 71 72
73 72 72 75 71 71 70 70 70 69 68 67 68 70 70 72 71 72 76 80 75 75 71 70 69 69 67 66 65 66 67 67 68 67 68 69 70 70
73 72 73 72 71 70 70 70 69 71 69 68 67 69 69 71 71 71 72 71 78 76 74 70 69 69 67 66 64 63 62 63 63 63 63 65 66 68
73 73 73 72 71 71 71 70 70 69 69 67 67 67 68 70 69 67 67 69 70 77 75 71 70 71 68 67 67 65 62 62 60 60 61 62 63 64
72 72 70 70 69 68 70 70 69 68 67 67 66 67 67 67 66 66 65 67 68 71 69 72 71 71 69 67 67 66 64 62 61 61 61 62 59 60
70 68 67 69 68 67 67 67 69 69 67 67 67 66 65 65 64 63 64 65 64 70 66 69 71 72 64 64 66 64 63 62 61 60 60 61 60 60
69 66 67 68 67 68 66 66 66 64 66 68 65 65 65 65 64 64 64 64 64 65 64 65 67 70 68 70 64 64 62 61 61 60 59 58 59 59
64 63 62 63 63 66 66 66 65 65 64 66 63 64 64 65 65 66 65 64 66 61 61 62 64 64 73 71 64 63 61 60 60 59 59 57 56 56
61 63 63 62 60 63 64 64 63 64 65 62 62 62 61 61 63 64 62 61 60 60 60 58 58 57 65 63 66 62 60 58 58 58 58 57 56 57
58 60 61 60 59 60 61 61 60 59 61 63 61 62 61 62 62 58 60 58 55 55 58 56 54 53 55 57 60 60 59 57 56 56 56 55 54 60
62 62 61 57 56 56 58 63 61 60 60 59 60 58 59 59 59 61 59 57 53 51 56 56 54 53 51 53 53 58 55 56 56 56 55 53 53 54
58 61 59 54 53 54 56 55 57 59 59 57 54 53 52 53 54 55 55 55 55 52 52 52 51 49 47 48 47 51 51 55 55 52 52 53 53 54
61 58 53 52 53 55 55 56 57 58 55 52 50 49 49 50 51 52 53 51 51 54 56 50 47 47 48 46 45 45 45 48 52 50 50 49 47 49
58 59 56 55 55 55 56 55 55 55 54 53 51 51 52 51 49 51 49 49 47 47 53 54 49 49 47 46 45 43 45 44 48 48 46 46 46 47
52 53 52 51 51 50 49 50 50 51 49 47 46 46 46 47 46 45 45 44 44 42 45 48 49 48 48 46 43 44 44 44 46 46 45 44 45 47
52 52 51 51 50 48 48 48 48 49 47 47 46 46 45 45 45 45 45 42 41 41 42 43 43 42 44 46 50 43 41 41 43 44 43 42 42 46
55 54 51 50 49 49 48 47 46 45 46 46 45 45 45 44 43 42 42 41 40 38 38 38 39 38 36 36 41 51 40 40 41 40 40 40 40 44
53 53 52 51 48 47 46 45 44 43 42 42 42 42 42 42 41 39 39 38 38 38 37 37 37 37 36 35 37 40 48 40 39 40 39 41 44 52
51 52 53 51 47 46 45 45 46 45 43 42 41 40 40 40 38 39 39 42 39 37 36 36 37 47 40 40 38 38 42 49 47 40 40 39 41 41
51 51 51 50 49 47 47 47 46 45 44 42 41 40 39 40 39 38 38 37 37 37 37 37 39 39 39 39 37 39 40 44 48 51 53 50 44 42
50 49 49 49 47 48 45 45 45 44 42 40 39 40 41 39 37 38 39 39 38 37 38 38 38 39 38 38 40 38 39 40 41 43 45 52 53 53

GFSNE_sfc_temp_120.txt.gz
Temp
75 75 74 74 73 72 73 71 72 71 72 75 74 78 79 81 80 82 82 72 72 71 70 70 71 72 72 73 73 73 74 74 74 74 74 75 77 78
76 75 75 76 75 74 74 72 71 73 73 75 77 76 79 83 80 80 82 76 73 71 70 69 69 70 70 70 70 71 71 72 72 72 72 72 73 75
76 75 75 76 76 76 76 74 74 72 72 75 74 78 78 77 79 80 81 82 82 70 70 69 67 67 67 67 67 69 70 70 70 70 71 71 71 72
75 75 75 77 75 75 76 75 75 74 74 72 73 75 75 77 77 77 79 84 81 72 69 68 67 65 64 64 63 63 63 65 65 65 66 68 70 70
75 76 76 75 74 75 75 75 75 74 74 72 73 74 74 76 76 77 76 77 83 75 70 68 67 66 64 63 62 61 59 60 60 61 64 64 66 67
75 76 76 75 74 74 74 74 75 74 73 73 71 72 73 75 73 72 74 75 75 80 75 70 69 67 65 64 64 62 60 59 58 60 59 61 62 64
75 75 75 74 70 71 74 74 73 72 72 72 72 71 71 71 70 70 71 71 72 73 75 75 71 70 68 65 66 64 61 61 59 58 58 59 60 61
73 73 72 71 70 67 68 67 73 73 72 72 71 70 70 70 70 71 71 72 70 72 74 72 72 68 68 68 63 62 61 61 60 59 60 59 59 60
72 70 71 71 70 70 66 66 65 64 68 73 72 70 70 71 71 70 70 70 69 68 69 70 72 65 65 66 62 61 60 59 59 59 58 58 58 57
69 69 68 68 68 70 70 69 68 68 69 73 70 70 69 70 71 72 71 70 68 65 65 66 69 67 68 65 61 61 59 58 58 58 57 55 54 54
65 66 67 67 62 62 67 67 66 66 63 61 61 60 59 60 66 72 70 70 68 66 63 66 65 66 64 63 65 60 58 57 56 56 56 54 54 55
61 61 62 63 59 60 64 64 65 65 66 66 65 63 62 63 61 64 68 69 66 64 61 64 63 63 63 63 62 62 62 56 54 54 54 53 52 61
60 62 61 57 55 56 58 65 64 64 63 63 63 63 62 63 63 61 60 64 62 60 59 62 62 62 60 62 61 60 60 59 59 58 54 51 51 53
59 61 59 53 52 54 57 55 56 60 63 63 62 60 59 59 59 58 57 58 58 55 56 57 59 58 60 59 57 59 57 57 57 56 56 54 52 52
62 57 53 51 53 55 55 56 58 60 58 57 56 57 56 58 58 58 57 56 55 56 57 53 57 56 58 56 55 53 54 55 55 53 54 54 54 55
58 58 56 55 55 56 58 57 57 57 58 58 57 57 57 56 55 55 55 55 54 53 54 54 54 57 53 53 54 51 52 50 52 52 53 55 55 55
56 57 57 58 57 57 57 57 57 57 57 56 55 54 54 54 52 53 51 51 51 50 50 52 53 54 54 53 51 51 50 51 52 51 52 53 55 55
57 56 55 56 57 56 56 55 55 54 54 54 54 53 52 52 51 51 51 50 48 48 49 50 51 52 52 52 53 50 50 50 51 52 52 52 54 57
57 56 56 56 54 53 53 55 54 53 52 52 52 51 51 51 51 50 50 49 48 48 47 49 50 51 51 51 52 51 50 51 51 52 52 52 51 54
54 54 53 53 53 53 52 52 51 51 51 51 51 51 51 50 49 48 48 48 48 47 48 49 49 48 48 48 50 52 48 51 51 50 51 53 54 53
56 54 53 53 53 54 53 52 50 50 50 50 50 50 49 49 47 48 47 45 45 47 46 47 48 47 50 50 49 50 53 50 50 50 51 50 50 52
54 55 54 54 54 54 52 51 51 50 49 50 49 48 49 49 48 47 48 47 47 48 48 49 49 50 50 49 48 48 51 53 53 52 52 52 51 48
55 55 54 54 53 52 51 51 51 50 50 49 48 48 47 46 47 47 47 47 47 46 47 49 49 50 49 48 46 48 48 49 51 51 54 53 52 53